GFSNGP_prec_radar_000.txt.gz
Reflectivity
-20 -20 -20 -20 -20 -20 -20 -20 -20 -20 -20 -20 -20 -20 -20 -20 -20 -20 -20 -20 -20 -20 -20 -20 15 -1 -20 -20 -20 -20 -20 -20 -20 -20 -20 -20 -20 -20 -20 -20 -20 -20 -20 -20
-20 -20 -20 -20 -20 -20 -20 -20 -20 -20 -20 -20 -20 -20 -20 -20 -20 -20 -20 -20 -20 -20 -20 3 -20 -20 -20 -20 -20 -20 -20 -20 -20 -20 -20 -20 -20 -20 -20 -20 -20 -20 -20 -20
-20 -20 -20 -20 -20 -20 -20 -20 -20 -20 -20 -20 -20 -20 -20 -20 -20 -20 -20 -20 -20 -20 -20 -20 -20 -20 -20 -20 -20 -20 -20 -20 -20 -20 -20 -20 -20 -20 -20 -20 -20 -20 -19 -15
-20 -20 -20 -20 -20 -20 -20 -20 -20 -20 -20 -20 -20 -20 -20 -20 -20 -20 -20 -20 -20 -20 -20 -20 -20 -20 -20 -20 -20 -20 -20 -20 -20 -20 -20 -20 -20 -20 -20 -20 -20 -20 -20 -20
-20 -20 -20 -20 -20 -20 -20 -20 -20 -20 -20 -20 -20 -20 -20 -20 -20 -20 -20 -20 -20 -20 -20 -20 -20 -20 -20 -20 -20 -20 -20 -20 -20 -20 -20 -20 -20 -20 -20 -20 -20 -20 -20 -20
-20 -20 -20 -20 -20 -20 -20 -20 -20 -20 -20 -20 -20 -20 -20 -20 -20 -20 -20 -20 -20 -20 -20 -20 -20 -20 -20 -20 -20 -20 -20 -20 -20 -20 -20 -20 -20 -20 -20 -20 -20 -20 -20 -20
-20 -20 -20 -20 -20 -20 -20 -20 -20 -20 -20 -20 -20 -20 -20 -20 -20 -20 -20 -20 -20 -20 -20 -20 -20 -20 -20 -20 -20 -20 -20 -20 -20 -20 -20 -20 -20 -20 -20 -20 -20 -20 -20 -20
-20 -20 -20 -20 -20 -20 -20 -20 -20 -20 -20 -20 -20 -20 -20 -20 -20 -20 -18 -20 -20 -20 -20 -20 -20 -20 -20 -20 -20 -20 -20 -20 -20 -20 -20 -20 -20 -20 -20 -20 -20 -20 -20 -20
-20 -20 -20 -20 -20 -20 -20 -20 -20 -20 -20 -20 -20 -20 -20 -20 -20 -15 -20 -20 -17 -20 -20 -20 -20 -20 -20 -20 -20 -20 -20 -20 -20 -20 -20 -20 -20 -20 -20 -20 -20 -20 -20 -20
-20 -20 -20 -20 -20 -20 -20 -20 -20 -20 -20 -20 -20 -20 -15 -20 -20 -14 6 10 -14 -20 -20 -20 -20 -20 -20 -20 -20 -20 -20 -20 -20 -20 -20 -20 -20 -20 -20 -20 -20 -20 -20 -20
-20 -20 -20 -20 -20 -20 -20 -20 -20 -20 -20 -20 -20 -12 -20 -8 -20 -14 20 -17 -20 -20 -20 -20 -20 -20 -20 -20 -20 -20 -20 -20 -20 -20 -20 -20 -20 -20 -20 -20 -20 -20 -20 -20
-20 -20 -20 -20 -20 -20 -20 -20 -20 -20 -20 -20 -13 -15 18 14 -4 23 -17 -15 -20 -20 -20 -20 -20 -20 -20 -20 -20 -20 -20 -20 -14 -19 -20 -12 -20 -20 -20 -20 -20 -20 -20 -20
-20 -20 -20 -20 -20 -20 -20 -20 -20 -20 -20 -20 -17 1 -3 -1 27 1 -19 -20 -20 -20 -20 -20 -20 -20 -20 -20 -20 -20 -20 -20 -20 -1 -17 -0 -20 -20 -20 -20 -20 -20 -20 -20
-20 -20 -20 -20 -20 -20 -20 -20 -20 -20 -20 -6 -11 7 30 20 8 -18 1 -19 -20 -20 -20 -20 -20 -20 -20 -20 -20 -20 -20 9 -15 -20 -20 -17 -20 -20 -17 -20 -20 -20 -20 -20
-20 -20 -20 -20 -20 -20 -20 -20 -20 -9 -4 5 28 33 21 5 3 9 3 -20 -20 -20 -20 -20 -20 -20 -20 -20 -20 -20 -20 -20 -20 -20 -20 -20 -20 -20 -20 -19 -20 -20 -20 -20
-20 -20 -20 -20 -20 -20 -20 -19 -7 12 28 38 36 14 5 12 9 -2 -8 -20 -20 -20 -20 -20 -20 -20 -20 -20 -20 -20 -19 6 -13 -20 -20 -20 -20 -20 -20 -20 -20 -20 -20 -20
-20 -20 -20 -20 -20 -20 -20 -19 14 32 33 4 -0 -3 6 2 2 -6 -20 -20 -20 -20 -20 -20 -20 -20 -20 -20 -20 -20 -20 -20 -17 -20 -20 -20 -20 -20 -20 -20 -6 -3 -20 -20
-20 -20 -20 -20 -20 -11 33 30 11 3 9 15 9 4 -3 -6 -20 -20 -20 -20 -20 -20 -20 -20 -20 -20 -20 -20 -20 -20 -20 -18 -20 -20 -19 -20 -20 -20 -20 -20 -20 -20 -15 -20
-18 -13 -4 10 26 27 20 -7 4 3 -3 -4 1 -1 -20 -20 -20 -20 -20 -20 -20 -20 -20 -20 -20 -20 -20 -19 -8 -20 -20 -20 -20 -20 -20 -20 -20 -20 -20 -20 -20 -20 -20 -20
5 -13 -15 -14 -17 -10 1 7 8 9 8 6 0 5 -4 -20 -20 -20 -20 -20 -20 -20 -20 -20 -20 -20 -20 -20 -7 -19 -20 -20 -20 -20 -20 -20 -20 -20 -20 -20 -20 -20 -20 -20
-20 -20 -19 -18 -17 -6 1 2 2 5 6 -3 -19 -20 -20 -20 -20 -20 -20 -20 -20 -20 -20 -20 -20 -20 -20 -20 -20 -6 -9 -20 -18 -20 -20 -20 -20 -20 -20 -20 -20 -11 -19 -20
-20 -20 -20 -20 -20 -20 -20 -20 -20 -20 -20 -20 -20 -20 -20 -20 -20 -20 -20 -20 -20 -20 -20 -20 -20 -20 -20 -17 -9 6 -10 -4 -20 -20 -20 -16 -11 -15 -15 -11 -9 -13 6 8
-20 -20 -20 -20 -20 -20 -20 -20 -20 -20 -20 -20 -20 -20 -20 -20 -20 -20 -20 -20 -20 -20 -20 -20 -20 -20 -20 -20 -20 4 -1 -1 -0 -0 -14 -19 -20 -18 -16 -15 -17 -8 -11 -1
-20 -20 -20 -20 -20 -20 -20 -20 -20 -20 -20 -20 -20 -20 -20 -20 -20 -20 -20 -20 -20 -20 -20 -20 -20 -20 -20 -20 -2 2 13 -6 -7 -20 -20 -20 -20 -20 -20 -20 -20 -20 -20 -19
-20 -20 -20 -20 -20 -20 -20 -20 -20 -20 -20 -20 -20 -20 -20 -20 -20 -20 -20 -18 10 -6 0 -20 -13 7 -20 -20 -20 -20 -20 -13 -20 -20 -20 -14 -7 -10 -20 -20 -20 -20 -20 -20
-20 -20 -20 -20 -20 -20 -20 -20 -20 -20 -20 -20 -18 -17 -20 -20 -20 -20 -20 -12 -20 -12 -2 4 -10 -20 -20 -20 -20 -20 -20 -20 -20 -20 -20 -20 -20 -20 -20 -20 -18 -17 -19 -19
-20 -19 -20 -20 -20 -20 -20 -20 -20 -20 -16 -6 -20 -20 -20 -20 -14 -4 -20 -12 -20 7 17 -2 -12 -20 -20 -20 -20 -20 -20 -20 -20 -20 -20 -20 -20 -20 -20 -20 -20 -20 -19 -18

GFSNGP_prec_radar_003.txt.gz
Reflectivity
-20 -20 -20 -20 -20 -20 -20 -20 -20 -20 -20 -20 -20 -20 -20 -20 -20 -20 -20 -20 -20 -20 -20 -20 -16 -7 -20 -20 -20 -20 -20 -20 -20 -20 -20 -20 -20 -20 -20 -20 -20 -20 -20 -20
-20 -20 -20 -20 -20 -20 -20 -20 -20 -20 -20 -20 -20 -20 -20 -20 -20 -20 -20 -20 -20 -20 -20 -20 -20 -20 -20 -20 -20 -20 -20 -20 -20 -20 -20 -20 -20 -20 -20 -20 -20 -20 -20 -20
-20 -20 -20 -20 -20 -20 -20 -20 -20 -20 -20 -20 -20 -20 -20 -20 -20 -20 -20 -20 -20 -20 -20 -20 -20 -20 -20 -20 -20 -20 -20 -20 -20 -20 -20 -20 -20 -20 -20 -20 -20 -20 -20 -20
-20 -20 -20 -20 -20 -20 -20 -20 -20 -20 -20 -20 -20 -20 -20 -20 -20 -20 -20 -20 -20 -20 -20 -20 -20 -20 -20 -20 -20 -20 -20 -20 -20 -20 -20 -20 -20 -20 -20 -20 -20 -20 -20 -20
-20 -20 -20 -20 -20 -20 -20 -20 -20 -20 -20 -20 -20 -20 -20 -20 -20 -20 -20 -20 -20 -20 -20 -20 -20 -20 -20 -20 -20 -20 -20 -20 -20 -20 -20 -20 -20 -20 -20 -20 -20 -20 -20 -20
-20 -20 -20 -20 -20 -20 -20 -20 -20 -20 -20 -20 -20 -20 -20 -20 -20 -20 -20 -20 -20 -19 -20 -20 -20 -20 -20 -20 -20 -20 -20 -20 -20 -20 -20 -20 -20 -20 -20 -20 -20 -20 -20 -20
-20 -20 -20 -20 -20 -20 -20 -20 -20 -20 -20 -20 -20 -20 -20 -20 -20 -20 -20 -20 -20 -4 18 -20 -20 -20 -20 -20 -20 -20 -20 -20 -20 -20 -20 -20 -20 -20 -20 -20 -20 -20 -20 -20
-20 -20 -20 -20 -20 -20 -20 -20 -20 -20 -20 -20 -20 -20 -20 -20 -20 -20 -20 -20 -20 -18 -20 -20 -20 -20 -20 -20 -20 -20 -20 -20 -20 -20 -20 -20 -20 -20 -20 -20 -20 -20 -20 -20
-20 -20 -20 -20 -20 -20 -20 -20 -20 -20 -20 -20 -20 -20 -20 -20 -20 -20 -20 -20 -19 -20 -20 -20 -20 -20 -20 -20 -20 -20 -20 -20 -20 -20 -20 -20 -20 -20 -20 -20 -20 -20 -20 -20
-20 -20 -20 -20 -20 -20 -20 -20 -20 -20 -20 -20 -20 -20 -20 -20 -20 -20 -20 -19 -18 15 -17 5 -20 -20 -20 -20 -20 -20 -20 -20 -20 -20 -20 -20 -20 -20 -20 -20 -20 -20 -20 -20
-20 -20 -20 -20 -20 -20 -20 -20 -20 -20 -20 -20 -20 -20 -20 -20 -20 -20 -20 22 21 9 9 -7 -20 -20 -20 -20 -20 -20 -20 -20 -20 -20 -20 -20 -20 -20 -20 -20 -20 -20 -20 -20
-20 -20 -20 -20 -20 -20 -20 -20 -20 -20 -20 -20 -20 -20 -20 -20 -15 -20 20 12 12 3 3 -20 -17 -20 -20 -20 -20 -20 -20 -20 -20 -20 -20 -20 -20 -20 -20 -20 -20 -20 -20 -20
-20 -20 -20 -20 -20 -20 -20 -20 -20 -20 -20 -20 -20 -20 -20 -20 7 39 24 14 -3 -9 -20 -11 -20 -20 -20 -20 -20 -20 -20 -20 -20 -20 -20 -19 -20 -20 -20 -20 -20 -20 -20 -20
-20 -20 -20 -20 -20 -20 -20 -20 -20 -20 -20 -20 -20 -17 -14 24 34 30 21 14 12 4 5 -3 -8 -10 -20 -20 -20 -20 -20 -20 -20 -20 -20 -20 -20 -19 -19 -20 -20 -20 -20 -20
-20 -20 -20 -20 -20 -20 -20 -20 -20 -20 -20 -17 6 25 37 36 25 15 26 12 5 5 -6 -7 -20 -20 -20 -20 -20 -20 -20 -20 -20 -20 -20 -20 -20 -20 -20 -20 -20 -20 -20 -20
-20 -20 -20 -20 -20 -20 -20 -20 -19 2 0 33 30 22 6 10 9 6 6 6 7 1 -12 -20 -20 -20 -20 -20 -20 -20 -20 -20 -20 -20 -20 -20 -20 -20 -20 -20 -20 -20 -12 -19
-20 -20 -20 -20 -20 -20 -1 -8 -5 13 27 20 -1 4 7 5 8 7 6 3 6 -5 -20 -20 -20 -20 -20 -20 -20 -20 -20 -20 -20 -12 -20 -20 -20 -20 -20 -20 -20 -20 -20 -20
-20 -20 -20 -19 -3 4 20 24 25 14 4 7 6 4 4 6 6 9 8 -2 -20 -20 -20 -20 -20 -20 -20 -20 -20 -20 -20 -20 -20 -20 -20 -20 -20 -20 -20 -20 -20 -20 -20 -20
-20 -17 -10 -14 -19 -20 -20 -20 -20 -15 0 2 5 8 10 4 -5 -14 -20 -19 -15 -20 -20 -20 -20 -20 -20 -20 -20 -20 -20 -20 -20 -20 -20 -20 -19 -20 -20 -20 -20 -20 -20 -20
-20 -20 -20 -20 -20 -20 -20 -20 -17 -13 -17 -17 -18 -20 -20 -20 -20 -20 -20 -20 -20 -20 -20 -20 -20 -20 -20 -20 -20 -20 -20 -20 -20 -20 -20 -20 -20 -20 -20 -20 -20 -20 -20 -20
-20 -20 -20 -20 -20 -20 -20 -20 -20 -20 -20 -20 -20 -20 -20 -20 -20 -20 -20 -20 -20 -20 -20 -20 -20 -20 -20 -20 -20 -20 -20 -20 -0 0 0 -3 -20 -20 -18 -19 -18 -19 -16 0
-20 -20 -20 -20 -20 -20 -20 -20 -20 -20 -20 -20 -20 -20 -20 -20 -20 -20 -20 -20 -20 -20 -20 -20 -20 -20 -20 -20 -20 -20 -20 -9 -4 -15 4 -14 -5 3 5 8 9 8 8 5
-20 -20 -20 -20 -20 -20 -20 -20 -20 -20 -20 -20 -20 -20 -20 -20 -20 -20 -20 -20 -20 -20 -20 -20 -20 -20 -9 1 -20 -20 -17 -5 -1 -11 15 15 11 8 7 7 9 9 8 7
-20 -20 -20 -20 -20 -20 -20 -20 -20 -20 -20 -20 -20 -20 -20 -20 -20 -20 -20 9 13 9 -0 -1 -3 -17 0 -2 1 12 2 -19 -9 12 -4 -18 -14 -18 -2 4 2 7 7 5
-20 -20 -20 -20 -20 -20 -20 -20 -20 -20 -20 -20 -20 -20 -20 -20 -16 -20 -20 -18 3 1 -20 14 10 -12 -4 -13 -16 -19 -18 -20 -20 -20 -18 -20 -20 -20 -20 -20 -20 -20 -20 -13
-20 -20 -20 -20 -20 -20 -20 -20 -20 -20 -20 -20 -20 0 0 -13 -5 2 2 -7 -1 5 12 -14 -19 14 23 13 -20 -20 -20 -20 -20 -8 -18 -20 -20 -20 -20 -20 -20 -20 -20 -20
-20 -20 -20 -20 -20 -20 -20 -20 -20 -20 -20 -20 -20 -20 -20 -20 -15 -19 -17 -2 4 8 2 6 8 22 17 -16 -20 -20 -20 -20 -20 -20 -20 -20 -20 -20 -20 -20 -20 -20 -20 -20

GFSNGP_prec_radar_009.txt.gz
Reflectivity
-20 -20 -20 -20 -20 -20 -20 -20 -20 -20 -20 -20 -20 -20 -20 -20 -20 -20 -20 -20 -20 -20 -20 -20 -20 -20 -20 -20 -20 -20 -7 -20 -20 -20 -20 -20 -20 -20 -20 -20 -20 -20 -20 -20
-20 -20 -20 -20 -20 -20 -20 -20 -20 -20 -20 -20 -20 -20 -20 -20 -20 -20 -20 -20 -20 -20 -20 -20 -20 -20 -20 -20 -20 -20 -18 -20 -20 -20 -14 -20 -20 -20 -20 -20 -20 -20 -20 -20
-20 -20 -20 -20 -20 -20 -20 -20 -20 -20 -20 -20 -20 -20 -20 -20 -20 -20 -20 -20 -20 -20 -20 -20 -20 -20 -20 -20 -20 -17 3 -20 -17 -9 0 -20 -20 -20 -20 -20 -20 -20 -20 -20
-20 -20 -11 -20 -20 -20 -20 -20 -20 -20 -20 -20 -20 -20 -20 -20 -20 -20 -20 -20 -20 -20 -20 -20 -20 -20 -20 -20 -20 7 -20 9 19 4 -20 -20 -20 -20 -20 -20 -20 -20 -20 -20
-15 -20 -20 -20 -20 -20 -20 -20 -20 -20 -20 -20 -20 -20 -20 -20 -20 -20 -20 -20 -20 -20 -20 -20 -20 -20 -20 -12 -4 -19 14 20 6 -20 -20 -20 -20 -20 -20 -20 -20 -20 -20 -20
-20 -20 -20 -20 -20 -20 -20 -20 -20 -20 -20 -20 -20 -20 -20 -20 -20 -20 -20 -20 -20 -20 -20 -20 -20 -20 -20 -20 2 -13 7 13 10 6 -6 -20 -20 -20 -20 -20 -20 -20 -20 -20
-20 -10 -20 -20 -20 -20 -20 -20 -20 -20 -20 -20 -20 -20 -20 -20 -20 -20 -20 -20 -20 -20 -20 -20 -20 -20 -16 6 10 16 -14 13 7 0 9 3 -18 -19 -12 -19 -20 -13 -20 -20
-20 -20 -20 -20 -20 -20 -20 -20 -20 -20 -20 -20 -20 -20 -20 -20 -20 -20 -20 -20 -20 -20 -20 -19 -3 -6 -3 9 23 20 11 -2 10 6 2 -8 3 2 -0 -20 -4 3 -14 -20
-20 -20 -20 -20 -20 -20 -20 -20 -20 -20 -20 -20 -20 -20 -20 -20 -20 -20 -20 -20 -20 -20 -20 -17 -14 -19 28 19 23 21 10 11 5 -4 7 9 4 5 -10 -20 -19 -20 -20 -0
-20 -20 -20 -20 -20 -20 -20 -20 -20 -20 -20 -20 -20 -20 -20 -20 -20 -20 -20 -20 -20 -20 -20 -20 -19 29 31 14 7 14 13 6 7 10 6 5 6 -13 -20 -20 1 -20 -11 -11
-20 -20 -20 -20 -20 -20 -20 -20 -20 -20 -20 -20 -20 -20 -20 -20 -20 -20 -20 -20 -20 -17 -20 -17 10 13 14 17 13 12 11 9 6 4 2 -3 -14 -10 -20 -20 -13 9 1 8
-20 -20 -20 -20 -20 -20 -20 -20 -20 -20 -20 -20 -20 -20 -20 -20 -20 -20 -20 -20 -19 -3 13 17 15 13 12 15 15 11 9 4 -4 -2 0 -13 -20 -20 -8 -20 -20 -20 -20 -20
-20 -20 -20 -20 -20 -20 -20 -20 -20 -20 -20 -20 -20 -20 -20 -20 -20 -8 -1 13 9 4 10 13 8 6 16 9 8 -14 -20 -9 -5 -20 -20 -17 -20 -20 -12 -9 -20 -20 -20 -20
-20 -20 -17 -20 -20 -20 -20 -20 -20 -20 -20 -20 -19 -20 -12 -8 -3 -17 -19 -19 -11 -11 -11 -9 -5 -17 -20 -20 -16 -3 0 -9 -20 -20 -18 -18 -14 -20 1 12 7 -12 -20 -20
-20 -20 -20 -20 -20 -20 -20 -20 -19 -11 -10 -20 -20 -20 -20 -20 -20 -20 -20 -20 -20 -20 -20 -20 -20 -20 -20 -16 -14 -20 -20 -20 -20 -17 2 -0 0 11 -10 -8 -8 0 6 -20
-20 -20 -20 -20 -20 -20 -20 -10 -18 -9 -20 -20 -20 -20 -20 -20 -20 -20 -20 -20 -20 -20 -20 -20 -20 -15 -18 -20 -20 -20 -20 -20 -20 -10 1 -18 -8 5 12 16 12 11 -2 -18
-20 -20 -20 -20 -20 -20 -13 -19 -19 -0 -20 -19 -13 -20 -20 -20 -20 -20 -20 -20 -20 -20 -20 -20 -20 -20 -20 -20 -20 -20 -20 -13 -6 -19 -20 -20 -20 -20 -20 16 16 15 11 9
-20 -20 -20 -15 -2 4 3 -14 -14 -20 -20 -20 -20 -20 -20 -20 -20 -20 -20 -20 -20 -20 -20 -20 -20 -20 -20 -20 -20 -20 -14 -1 -17 -20 -2 8 1 14 7 8 10 12 7 7
-20 -12 -20 -20 -10 -20 -20 -20 -20 -20 -20 -20 -20 -20 -20 -20 -20 -20 -20 -20 -20 -20 -20 -20 -20 -20 -20 -20 -20 -20 -0 -3 -18 -17 1 -5 13 14 13 11 1 12 14 13
-20 -20 -20 -20 -20 -20 -20 -20 -20 -20 -20 -20 -20 -20 -20 -20 -20 -20 -20 -20 -20 -5 -11 -16 -16 -3 3 2 5 9 -15 11 17 11 2 15 14 8 3 -5 -16 -1 10 4
-20 -20 -20 -20 -20 -20 -20 -20 -20 -20 -20 -20 -20 -20 -20 -20 -20 -20 -20 -20 -20 -16 -20 -20 -20 -18 -3 1 -3 5 13 18 25 22 3 2 21 10 4 15 6 12 16 13
-20 -20 -20 -20 -20 -18 -20 -20 -20 -20 -20 -20 -20 -20 -20 -20 -20 -20 -20 -14 -17 -20 -14 -6 -2 -8 4 -4 7 10 2 9 8 9 21 28 17 -1 5 9 14 13 3 2
-20 -20 -20 -20 -20 -20 -20 -20 -20 -20 -20 -20 -20 -20 -20 -20 -20 -20 -18 -20 -12 -3 -3 7 7 -12 -13 6 14 10 7 1 1 30 28 14 3 4 -8 -1 -2 -1 -3 -8
-20 -20 -13 -20 -20 -20 -20 -20 -20 -20 -20 -20 -20 -20 -20 -20 -20 -20 -7 -1 5 -6 3 11 -10 -20 -4 10 8 1 3 -6 13 24 26 24 15 -6 -3 -0 -5 -6 -4 -12
-20 -20 -20 -20 -20 -20 -20 -20 -20 -20 -20 -20 -20 -20 -20 -20 -4 -4 5 1 -1 1 2 3 -6 -20 5 2 4 3 2 4 6 14 21 22 14 -1 -1 -2 1 -1 -5 -4
-20 -20 -20 -20 -20 -20 -20 -20 -20 -20 -20 -20 -20 -16 -3 -1 0 1 -0 2 2 2 0 3 2 1 2 0 0 -0 3 5 6 12 14 8 -6 -2 -2 -1 1 -2 -4 -4
-20 -20 -20 -20 -20 -20 -20 -20 -20 -20 -12 -3 -10 0 -1 2 4 3 3 6 3 3 3 7 6 -0 -0 2 2 1 0 3 -2 -2 -1 -6 -3 -2 -1 -1 -1 -1 -1 -1

GFSNGP_prec_radar_015.txt.gz
Reflectivity
-20 -20 -20 -20 -20 -20 -20 -20 -20 -20 -20 -20 -20 -20 -20 -20 -20 -20 -20 -20 -20 -20 -20 -20 -20 -20 -20 9 -20 -20 -20 -20 -20 -20 -20 -20 -7 -3 -3 -20 -17 -9 -18 -20
-20 -20 -20 -20 -20 -20 -20 -20 -20 -20 -20 -20 -20 -20 -20 -20 -20 -20 -20 -20 -20 -20 -20 -20 14 12 17 -3 -20 -20 -20 -20 -20 -20 -20 -20 -7 -5 -18 4 -1 10 8 11
-20 -20 -20 -20 -20 -20 -20 -20 -20 -20 -20 -20 -20 -20 -20 -20 -20 -20 -20 -20 -20 -20 -20 -20 -20 4 -20 -20 -20 -20 -20 -20 -20 -20 -20 -20 -20 7 16 7 -2 -6 -2 -11
-20 -20 -20 -20 -20 -20 -20 -20 -20 -20 -20 -20 -20 -20 -20 -20 -20 -20 -20 -20 -20 -20 -20 -20 -20 -20 -20 -20 -20 -20 -20 -20 -20 -20 -20 -20 6 18 19 5 2 -20 -20 -20
-20 -20 -20 -20 -20 -20 -20 -20 -20 -20 -20 -20 -20 -20 -20 -20 -20 -20 -20 -20 -20 -20 -20 -20 -20 -20 -20 -20 -20 -20 -20 -20 -20 14 3 21 14 17 11 9 -20 -20 -20 -20
-20 -20 -20 -20 -20 -20 -20 -20 -20 -20 -20 -20 -20 -20 -20 -20 -20 -20 -20 -20 -20 -20 -20 -20 -20 -20 -20 -20 6 -6 -20 -20 -19 -20 18 29 20 21 1 -20 -20 -20 -2 -20
-20 -20 -20 -20 -20 -20 -20 -20 -20 -20 -20 -20 -20 -20 -20 -20 -20 -20 -20 -20 -20 -20 -20 -20 -20 -20 -20 -16 -12 4 -6 -4 13 22 25 21 11 3 5 -3 3 -11 -20 -20
-20 -20 -20 -20 -20 -20 -20 -20 -20 -20 -20 -20 -20 -20 -20 -20 -20 -20 -20 -20 -20 -20 -20 -20 -20 -20 7 6 12 -5 -2 15 25 23 14 0 3 -0 1 2 -19 -20 -20 -20
-20 -20 -20 -20 -20 -20 -20 -20 -20 -20 -20 -20 -20 -20 -20 -20 -20 -20 -20 -20 -20 -20 -20 -20 -20 -20 -20 -18 -13 8 14 29 23 -3 -4 7 0 -17 -15 -20 -20 -20 -20 -20
-20 -20 -20 -20 -20 -20 -20 -20 -20 -20 -20 -20 -20 -20 -20 -20 -20 -20 -20 -20 -20 -20 -20 -20 -20 -20 -20 -20 -19 6 4 -20 -20 -20 -20 -20 -20 -20 -20 -20 -20 -20 -20 -20
-20 -20 -20 -20 -20 -20 -20 -20 -20 -20 -20 -20 -20 -20 -20 -20 -20 -20 -20 -20 -20 -20 -20 -20 -20 -20 -20 -20 -20 -20 -20 -20 -20 -20 -20 -20 -20 -20 -20 -20 -20 -20 -20 -20
-20 -20 -20 -20 -20 -20 -20 -20 -20 -20 -20 -20 -20 -20 -20 -20 -20 -20 -20 -20 -20 -20 -20 -20 -20 -20 -20 -20 -20 -20 -20 -20 -20 -20 -20 -20 -20 -20 -20 -20 -20 -20 -20 -20
-20 -20 -20 -20 -20 -20 -20 -20 -20 -20 -20 -20 -20 -20 -20 -20 -20 -20 -20 -20 -20 -20 -20 -20 -20 -20 -20 -20 -20 -20 -20 -20 -20 -20 -20 -20 -20 -20 -20 -20 -20 -20 -20 -20
-20 -20 -20 -20 -20 -20 -20 -20 -20 -20 -20 -20 -20 -20 -20 -20 -20 -20 -20 -20 -20 -20 -20 -20 -20 -20 -20 -20 -20 -20 -20 -20 -20 -20 -20 -20 -20 -20 -20 -20 -20 -20 -20 -20
-20 -20 -20 -20 -20 -20 -20 -20 -20 -20 -20 -20 -20 -20 -20 -20 -20 -20 -20 -20 -20 -20 -20 -20 -20 -20 -20 -20 -20 -20 -20 -20 -20 -20 -20 -20 -20 -20 -20 -20 -20 -20 -20 -20
-20 -20 -20 -20 -20 -20 -20 -20 -20 -20 -20 -20 -20 -20 -20 -20 -20 -20 -20 -20 -20 -20 -20 -20 -20 -20 -20 -20 -20 -20 -20 -20 -20 -20 -20 -9 -12 -16 -0 13 -2 -20 -20 -20
-20 -20 -20 -20 -20 -20 -20 -20 -20 -20 -20 -20 -20 -20 -20 -20 -20 -20 -20 -20 -20 -20 -20 -20 -20 -20 -20 -20 -20 -20 -20 -15 3 -6 5 2 5 -18 -16 -10 0 -20 -4 -20
-20 -20 -20 -20 -20 -20 -20 -20 -20 -20 -20 -20 -20 -20 -20 -20 -20 -20 -20 -20 -20 -20 -20 -20 -20 -20 -20 -20 -20 -20 -20 -20 -20 -20 -18 -19 -12 5 22 8 -8 -12 -1 -16
-20 -20 -20 -20 -20 -20 -20 -20 -20 -20 -19 -20 -20 -20 -20 -20 -20 -20 -20 -20 -20 -20 -20 -20 -20 -20 -20 -20 -20 -20 -20 -20 -20 -6 -5 2 -17 -20 -2 -0 27 36 1 -1
-20 -20 -20 -20 -20 -12 -12 -20 -20 -20 -20 -20 -20 -20 -20 -20 -20 -20 -20 -20 -20 -18 -20 -20 -20 -20 -20 -20 -20 -20 -18 4 -19 -7 -20 -20 -8 5 -15 -4 -0 2 17 25
-20 -16 -11 -20 -20 -20 -20 -20 -20 -20 -20 -20 -20 -20 -20 -20 -20 -20 -20 -20 -19 -20 -20 -20 -20 -20 -20 -20 -20 -20 -2 -20 -20 -20 -20 -19 -18 -19 6 14 15 22 15 10
11 -17 -20 -20 -20 -20 -20 -20 -20 -20 -20 -20 -20 -20 -20 -20 -20 -20 -20 -20 -13 -20 -20 -20 -20 -20 -20 -18 -20 -20 -7 -20 -20 -20 -20 -20 -20 -15 -10 8 -1 13 21 17
-20 -20 -20 -20 -20 -20 -20 -20 -20 -20 -20 -20 -20 -20 -20 -20 -20 -20 -20 -15 -20 -20 -20 -1 -20 -20 -20 -20 -20 -20 -20 -20 -20 -20 -20 -20 -20 -19 -20 -12 1 9 19 15
-20 -20 -20 -20 -20 -20 -20 -20 -20 -20 -20 -20 -20 -20 -20 -20 -20 -20 -20 -20 -20 -20 -20 -20 -20 -20 -20 -20 -20 -20 -20 -13 -20 -20 -20 -20 -20 -20 -20 -20 -20 -20 -15 -4
-20 -20 -20 -20 -20 -20 -20 -20 -20 -20 -20 -20 -20 -20 -20 -20 -20 -20 -20 -20 -20 -20 -20 -20 -20 -20 -20 -20 -20 -20 -3 -20 -9 -20 -20 -20 -20 -20 -20 -20 -20 -17 -20 -19
-20 -20 -20 -20 -20 -20 -20 -20 -20 -20 -20 -20 -20 -20 -20 -20 -20 -20 -20 -20 -20 -20 -20 -20 -20 -20 -20 -20 -20 -20 -15 -20 -16 -20 -20 -20 -18 -20 -20 -20 -20 -20 -20 -15
-16 -15 -15 -8 -20 -20 -20 -20 -20 -20 -20 -20 -20 -20 -20 -20 -20 -20 -20 -20 -20 -20 -20 -20 -20 -20 -20 -20 -20 -20 -20 -20 -20 -20 -20 -20 -20 -20 -20 -20 -20 -20 -12 -20

GFSNGP_prec_radar_021.txt.gz
Reflectivity
-20 -20 -20 -20 -20 -20 -20 -20 -20 -20 -20 -20 -20 -20 -20 -20 -20 -20 -20 -20 -20 -20 -20 -11 12 6 -20 -20 18 -8 -10 -9 -20 -20 -20 -20 -19 -14 -19 -20 -19 -20 -20 19
-20 -20 -20 -20 -20 -20 -20 -20 -20 -20 -20 -20 -20 -20 -20 -20 -20 -20 -20 -20 -20 -20 -20 -20 -20 -20 -20 -20 20 6 -20 -20 -20 -20 -20 -20 -16 -19 -17 -18 -15 -3 8 18
-20 -20 -20 -20 -20 -20 -20 -20 -20 -20 -20 -20 -20 -20 -20 -20 -20 -20 -20 -20 -20 -20 -20 -20 -20 -20 -20 -20 -20 -20 -20 -20 -17 4 -14 -20 -20 -20 -20 -17 -6 11 25 20
-20 -20 -20 -20 -20 -20 -20 -20 -20 -20 -20 -20 -20 -20 -20 -20 -20 -20 -20 -20 -20 -20 -20 -20 -20 -20 -20 -20 -20 -20 -20 -20 -6 -1 -20 -20 -20 -20 -20 11 34 13 28 4
-20 -20 -20 -20 -20 -20 -20 -20 -20 -20 -20 -20 -20 -20 -20 -20 -20 -20 -20 -20 -20 -20 -20 -20 -20 -20 -20 -20 -20 -20 -20 -19 -9 4 -20 -20 4 24 15 35 20 -4 -20 -11
-20 -20 -20 -20 -20 -20 -20 -20 -20 -20 -20 -20 -20 -20 -20 -20 -20 -20 -20 -20 -20 -20 -20 -20 -20 -20 -20 -20 -20 -20 -20 -19 -11 -20 -11 8 28 24 20 20 8 4 -18 -20
-20 -20 -20 -20 -20 -20 -20 -20 -20 -20 -20 -20 -20 -20 -20 -20 -20 -20 -20 -20 -20 -20 -20 -20 -20 -20 -20 -20 -20 -20 -20 -20 -10 7 28 21 20 27 25 6 -20 -20 -20 -20
-20 -20 -20 -20 -20 -20 -20 -20 -20 -20 -20 -20 -20 -20 -20 -20 -20 -20 -20 -20 -20 -20 -20 -20 -20 -20 -20 -20 -20 -20 -20 -20 -17 21 27 18 15 11 -6 -20 -20 -20 -20 -20
-20 -20 -20 -20 -20 -20 -20 -20 -20 -20 -20 -20 -20 -20 -20 -20 -20 -20 -20 -20 -20 -20 -20 -20 -20 -20 -20 -20 -20 -20 -20 -20 -19 -12 -9 -18 -20 -20 -20 -20 -20 -20 -20 -20
-20 -20 -20 -20 -20 -20 -20 -20 -20 -20 -20 -20 -20 -20 -20 -20 -20 -20 -20 -20 -20 -20 -20 -20 -20 -20 -20 -20 -20 -20 -20 -20 -20 -20 -20 -20 -20 -20 -20 -20 -20 -20 -20 -20
-20 -20 -20 -20 -20 -20 -20 -20 -20 -20 -20 -20 -20 -20 -20 -20 -20 -20 -20 -20 -20 -20 -20 -20 -20 -20 -20 -20 -20 -20 -20 -20 -20 -20 -20 -20 -20 -20 -20 -20 -20 -20 -20 -20
-20 -20 -20 -20 -20 -20 -20 -20 -20 -20 -20 -20 -20 -20 -20 -20 -20 -20 -20 -20 -20 -20 -20 -20 -20 -20 -20 -20 -20 -20 -20 -20 -20 -20 -20 -20 -20 -20 -20 -20 -20 -20 -20 -20
-20 -20 -20 -20 -20 -20 -20 -20 -20 -20 -20 -20 -20 -20 -20 -20 -20 -20 -20 -20 -20 -20 -20 -20 -20 -20 -20 -20 -20 -20 -20 -20 -20 -20 -20 -20 -20 -20 -20 -20 -20 -20 -20 -20
-20 -20 -20 -20 -20 -20 -20 -20 -20 -20 -20 -20 -20 -20 -20 -20 -20 -20 -20 -20 -20 -20 -20 -20 -20 -20 -20 -20 -20 -20 -20 -20 -20 -20 -20 -20 -20 -20 -11 -17 -16 -16 -20 -13
-20 -20 -20 -20 -20 -20 -20 -20 -20 -20 -20 -20 -20 -20 -20 -20 -20 -20 -20 -20 -20 -20 -20 -20 -20 -20 -20 -20 -20 -20 -20 -20 -20 -20 -20 -20 -20 -20 -20 -20 -20 -20 -20 -20
-20 -20 -20 -20 -20 -20 -20 -20 -20 -20 -20 -20 -20 -20 -20 -20 -20 -20 -20 -20 -20 -20 -20 -20 -20 -20 -20 -20 -20 -20 -20 -20 -20 -20 -20 -20 -20 -6 -17 -12 -19 2 3 -13
-19 -19 -20 -20 -20 -20 -20 -20 -20 -20 -20 -20 -20 -20 -20 -20 -20 -20 -20 -20 -20 -20 -20 -20 -20 -20 -20 -20 -20 -20 -20 -20 -20 -18 -20 -20 -20 -20 -5 -20 -19 -20 -20 -20
-20 -20 -12 -20 -20 -20 -20 -20 -20 -20 -20 -20 -20 -20 -19 -20 -20 -20 -20 -20 -20 -20 -20 -20 -20 -20 -20 -20 -20 -20 -20 -20 -20 -20 -20 -20 -20 -10 -20 -6 -20 -20 -20 -20
-20 -20 -20 -20 -20 -18 -20 -20 -20 -19 -20 -20 -20 -20 -20 -20 -20 -20 -20 -20 -20 -20 -20 -20 -20 -20 -20 -20 -20 -20 -14 -20 -20 -20 -20 -20 -20 -20 -20 -20 -20 -20 -20 -20
8 32 13 -20 -20 -20 -20 -20 -9 -19 -20 -20 -20 -20 -20 -20 -20 -20 -20 -20 -20 -20 -20 -20 -20 -20 -20 -20 -20 -20 -20 -20 -20 -20 -20 -20 -20 -20 -20 -20 -20 -20 -20 -20
10 -7 -20 -11 -20 -18 -4 -17 -20 -20 -20 -20 -20 -20 -20 -20 -20 -20 -20 -20 -20 -20 -20 -20 -20 -20 -20 -20 -20 -20 -20 -20 -20 -20 -20 -20 -20 -20 -20 -20 -20 -20 -20 -20
12 9 4 7 16 14 2 -20 -20 -20 -20 -20 -20 -20 -20 -20 -20 -20 -20 -20 -20 -20 -20 -20 -20 -20 -20 -20 -20 -20 -20 -20 -20 -20 -20 -20 -20 -20 -20 -20 -20 -20 -20 -20
8 6 9 6 -1 -17 -20 -20 -20 -20 -20 -20 -20 -20 -20 -20 -20 -20 -20 -20 -20 -20 -20 -20 -20 -20 -20 -20 -20 -20 -20 -20 -20 -20 -20 -20 -20 -20 -20 -20 -20 -20 -20 -20
5 -5 -6 -14 -19 -20 -20 -20 -20 -20 -20 -20 -20 -20 -20 -20 -20 -20 -20 -20 -20 -20 -20 -20 -20 -20 -20 -20 -20 -20 -20 -20 -20 -20 -20 -20 -20 -20 -20 -20 -20 -20 -20 -20
3 -0 -13 -20 -20 -20 -20 -20 -20 -20 -20 -20 -20 -20 -20 -20 -20 -20 -20 -20 -20 -20 -20 -20 -20 -20 -20 -20 -20 -20 -20 -20 -20 -20 -20 -20 -20 -20 -20 -20 -20 -20 -20 -20
-20 -20 -19 -18 -19 -19 -19 -19 -20 -20 -20 -20 -20 -20 -20 -20 -20 -20 -20 -20 -20 -20 -20 -20 -20 -20 -20 -20 -20 -20 -20 -20 -20 -20 -20 -20 -20 -20 -20 -20 -20 -20 -20 -20
7 6 1 1 1 -1 -3 -6 -19 -20 -20 -20 -20 -20 -20 -20 -20 -20 -20 -20 -20 -20 -20 -20 -20 -20 -20 -20 -20 -20 -20 -20 -20 -20 -20 -20 -20 -20 -20 -20 -20 -20 -20 -20

GFSNGP_prec_radar_024.txt.gz
Reflectivity
-20 -20 -20 -20 -20 -20 -20 -20 -20 -20 -20 -20 -20 -20 -20 -20 -20 -20 -20 -20 -20 -20 -20 -20 -20 0 -20 -20 -20 -20 -13 -17 -3 -19 1 -2 -20 -20 -20 -20 -20 -12 -20 -20
-20 -20 -20 -20 -20 -20 -20 -20 -20 -20 -20 -20 -20 -20 -20 -20 -20 -20 -20 -20 -20 -20 -20 -20 -20 -20 -20 -20 -20 -20 -20 -20 -20 12 -19 2 -20 -20 -7 -19 -19 -15 -20 1
-20 -16 -20 -20 -20 -20 -20 -20 -20 -20 -20 -20 -20 -20 -20 -20 -20 -20 -20 -20 -20 -20 -20 -20 -20 -20 -20 -20 -20 -20 -20 -20 -20 -20 -20 5 -20 -20 -11 12 18 16 17 39
-20 -20 -20 -20 -20 -20 -20 -20 -20 -20 -20 -20 -20 -20 -20 -20 -20 -20 -20 -20 -20 -20 -20 -20 -20 -20 -20 -20 -20 -20 -20 -20 -20 -20 -8 -13 -10 -14 13 4 17 6 21 28
-20 -20 -20 -20 -20 -20 -20 -20 -20 -20 -20 -20 -20 -20 -20 -20 -20 -20 -20 -20 -20 -20 -20 -20 -20 -20 -20 -20 -20 -20 -20 -20 -20 -20 -2 -9 -2 11 8 26 40 21 21 -9
-20 -20 -20 -20 -20 -20 -20 -20 -20 -20 -20 -20 -20 -20 -20 -20 -20 -20 -20 -20 -20 -20 -20 -20 -20 -20 -20 -20 -20 -20 -20 -20 -20 -14 -1 -10 5 28 26 21 20 21 23 18
-20 -20 -20 -20 -20 -20 -20 -20 -20 -20 -20 -20 -20 -20 -20 -20 -20 -20 -20 -20 -20 -20 -20 -20 -20 -20 -20 -20 -20 -20 -20 -20 -20 -20 -20 -20 -7 2 12 19 8 -20 -20 -20
-20 -20 -20 -20 -20 -20 -20 -20 -20 -20 -20 -20 -20 -20 -20 -20 -20 -20 -20 -20 -20 -20 -20 -20 -20 -20 -20 -20 -20 -20 -20 -20 -20 -20 -15 -11 -13 -12 -20 -20 -20 -20 -20 -20
-20 -20 -20 -20 -20 -20 -20 -20 -20 -20 -20 -20 -20 -20 -20 -20 -20 -20 -20 -20 -20 -20 -20 -20 -20 -20 -20 -20 -20 -20 -20 -20 -20 -20 -20 -20 -20 -20 -20 -20 -20 -20 -20 -20
-20 -20 -20 -20 -20 -20 -20 -20 -20 -20 -20 -20 -20 -20 -20 -20 -20 -20 -20 -20 -20 -20 -20 -20 -20 -20 -20 -20 -20 -20 -20 -20 -20 -20 -20 -20 -20 -20 -20 -20 -20 -20 -20 -20
-20 -20 -20 -20 -20 -20 -20 -20 -20 -20 -20 -20 -20 -20 -20 -20 -20 -20 -20 -20 -20 -20 -20 -20 -20 -20 -20 -20 -20 -20 -20 -20 -20 -20 -20 -20 -20 -20 -20 -20 -20 -20 -20 -20
-20 -20 -20 -20 -20 -20 -20 -20 -20 -20 -20 -20 -20 -20 -20 -20 -20 -20 -20 -20 -20 -20 -20 -20 -20 -20 -20 -20 -20 -20 -20 -20 -20 -20 -20 -20 -20 -20 -20 -20 -20 -20 -20 -20
-20 -20 -20 -20 -20 -20 -20 -20 -20 -20 -20 -20 -20 -20 -20 -20 -20 -20 -20 -20 -20 -20 -20 -20 -20 -20 -20 -20 -20 -20 -20 -20 -20 -20 -20 -20 -20 -20 -20 -20 -20 -20 -20 -20
-20 -20 -20 -20 -20 -20 -20 -20 -20 -20 -20 -20 -20 -20 -20 -20 -20 -20 -20 -20 -20 -20 -20 -20 -20 -20 -20 -20 -20 -20 -20 -20 -20 -20 -20 -20 -20 -20 -20 -20 -20 -20 -20 -20
-20 -20 -20 -20 -20 -20 -20 -20 -20 -20 -20 -20 -20 -20 -20 -20 -19 -7 -10 -20 -20 -20 -20 -20 -20 -20 -20 -20 -20 -20 -20 -20 -20 -20 -20 -20 -20 -20 -20 -20 -20 -20 -20 -20
-20 -20 -20 -20 -20 -20 -20 -20 -20 -20 -20 -20 -20 -20 -20 -20 -14 -19 -20 -20 -20 -20 -20 -20 -20 -20 -20 -20 -20 -20 -20 -20 -20 -20 -20 -20 -20 -20 -20 -20 -20 -20 -20 -20
-17 -20 -20 -20 -20 -20 -20 -20 -20 -20 -20 -20 -20 -20 -18 -17 -6 -17 -20 -20 -20 -20 -20 -20 -20 -20 -20 -20 -20 -20 -20 -20 -20 -20 -20 -20 -20 -20 -20 -20 -20 -20 -20 -20
10 17 9 -14 -20 -20 -20 -20 -20 -20 -20 -20 -18 -18 -20 -12 3 -12 -20 -20 -20 -20 -20 -20 -20 -20 -20 -20 -20 -20 -20 -20 -20 -20 -20 -20 -20 -20 -20 -20 -20 -20 -20 -20
-16 -20 -13 -20 -20 -20 -20 -20 -20 -20 -18 -17 -15 2 9 -0 -20 -13 -16 -20 -20 -20 -20 -20 -20 -20 -20 -20 -20 -20 -20 -20 -20 -20 -20 -20 -20 -20 -20 -20 -20 -20 -20 -20
-20 -20 -20 -20 -18 5 17 20 16 12 4 13 4 2 -2 -20 -20 -19 -20 -20 -20 -20 -20 -20 -20 -20 -20 -20 -20 -20 -20 -20 -20 -20 -20 -20 -20 -20 -20 -20 -20 -20 -20 -20
-19 -3 17 11 14 20 20 10 7 11 9 8 2 -3 -20 -20 -20 -20 -20 -20 -20 -20 -20 -20 -20 -20 -20 -20 -20 -20 -20 -20 -20 -20 -20 -20 -20 -20 -20 -20 -20 -20 -20 -20
21 19 16 16 15 15 15 12 7 3 -3 -2 -10 -17 -20 -20 -20 -20 -20 -20 -20 -20 -20 -20 -20 -20 -20 -20 -20 -20 -20 -20 -20 -20 -20 -20 -20 -20 -20 -20 -20 -20 -20 -20
-0 -0 -6 -1 3 -3 -14 -19 -14 -10 -9 -7 -11 -10 -20 -20 -20 -20 -20 -20 -20 -20 -20 -20 -20 -20 -20 -20 -20 -20 -20 -20 -20 -20 -20 -20 -20 -20 -20 -20 -20 -20 -20 -20
-1 6 6 -0 1 -1 -14 -20 -20 -20 -20 -20 -20 -20 -20 -20 -20 -20 -20 -20 -20 -20 -20 -20 -20 -20 -20 -20 -20 -20 -20 -20 -20 -20 -20 -20 -20 -20 -20 -20 -20 -20 -20 -20
3 7 11 6 -4 -19 -20 -20 -20 -20 -20 -20 -20 -20 -20 -20 -20 -20 -20 -20 -20 -20 -20 -20 -20 -20 -20 -20 -20 -20 -20 -20 -20 -20 -20 -20 -20 -20 -20 -20 -20 -20 -20 -20
6 -5 -15 -7 4 9 4 0 -9 -14 -16 -19 -20 -20 -20 -20 -20 -20 -20 -20 -20 -20 -20 -20 -20 -20 -20 -20 -20 -20 -20 -20 -20 -20 -20 -20 -20 -20 -20 -20 -20 -20 -20 -20
7 9 8 8 9 9 5 -2 -3 -8 -13 -14 -18 -20 -20 -20 -20 -20 -20 -20 -20 -20 -20 -20 -20 -20 -20 -20 -20 -20 -20 -20 -20 -20 -20 -20 -20 -20 -20 -20 -20 -20 -20 -20

GFSNGP_prec_radar_027.txt.gz
Reflectivity
-20 -20 -20 -20 -20 -20 -20 -20 -20 -20 -20 -20 -20 -20 -20 -20 -20 -20 -20 -20 -20 -20 -20 -20 -20 -20 -20 -20 -20 -20 -20 -20 -20 -20 -20 -20 -20 -20 1 -4 -3 -1 -7 2
-20 -20 -20 -20 -20 -20 -20 -20 -20 -20 -20 -20 -20 -20 -20 -20 -20 -20 -20 -20 -20 -20 -20 -20 -20 -20 -20 -20 -20 -20 -20 -20 -20 -20 -20 -20 -20 -20 -12 19 3 -16 -20 -16
-20 -20 -20 -20 -20 -20 -20 -20 -20 -20 -20 -20 -20 -20 -20 -20 -20 -20 -20 -20 -20 -20 -20 -20 -20 -20 -20 -20 -20 -20 -20 -20 -20 -20 -20 -20 -20 -6 12 18 8 -16 -20 31
-20 -20 -20 -20 -20 -20 -20 -20 -20 -20 -20 -20 -20 -20 -20 -20 -20 -20 -20 -20 -20 -20 -20 -20 -20 -20 -20 -20 -20 -20 -20 -20 -20 -20 -20 -20 -20 -20 -11 -15 7 30 10 36
-20 -20 -20 -20 -20 -20 -20 -20 -20 -20 -20 -20 -20 -20 -20 -20 -20 -20 -20 -20 -20 -20 -20 -20 -20 -20 -20 -20 -20 -20 -20 -20 -20 -20 -20 -20 -20 -17 19 -3 2 15 4 -14
-20 -20 -20 -20 -20 -20 -20 -20 -20 -20 -20 -20 -20 -20 -20 -20 -20 -20 -20 -20 -20 -20 -20 -20 -20 -20 -20 -20 -20 -20 -20 -20 -20 -20 -20 -20 -20 -20 -20 -20 -12 -7 8 19
-20 -20 -20 -20 -20 -20 -20 -20 -20 -20 -20 -20 -20 -20 -20 -20 -20 -20 -20 -20 -20 -20 -20 -20 -20 -20 -20 -20 -20 -20 -20 -20 -20 -20 -20 -20 -20 -13 -6 4 -2 -14 -20 -20
-20 -20 -20 -20 -20 -20 -20 -20 -20 -20 -20 -20 -20 -20 -20 -20 -20 -20 -20 -20 -20 -20 -20 -20 -20 -20 -20 -20 -20 -20 -20 -20 -20 -20 -20 -18 -18 -20 -20 -20 -20 -20 -20 -20
-20 -20 -20 -20 -20 -20 -20 -20 -20 -20 -20 -20 -20 -20 -20 -20 -20 -20 -20 -20 -20 -20 -20 -20 -20 -20 -20 -20 -20 -20 -20 -20 -20 -20 -20 -20 -20 -20 -20 -20 -20 -20 -20 -20
-20 -20 -20 -20 -20 -20 -20 -20 -20 -20 -20 -20 -20 -20 -20 -20 -20 -20 -20 -20 -20 -20 -20 -20 -20 -20 -20 -20 -20 -20 -20 -20 -20 -20 -20 -20 -20 -20 -20 -20 -20 -20 -20 -18
-20 -20 -20 -20 -20 -20 -20 -20 -20 -20 -20 -20 -20 -20 -20 -20 -20 -20 -20 -20 -20 -20 -20 -20 -20 -20 -20 -20 -20 -20 -20 -20 -20 -20 -20 -20 -20 -20 -20 -20 -20 -20 -20 -15
-20 -20 -20 -20 -20 -20 -20 -20 -20 -20 -20 -20 -20 -20 -20 -20 -20 -20 -20 -20 -20 -20 -20 -20 -20 -20 -20 -20 -20 -20 -20 -20 -20 -20 -20 -20 -20 -20 -20 -20 -20 -20 -20 -20
-3 -12 -20 -20 -20 -20 -20 -20 -20 -20 -20 -20 -20 -20 -20 -20 -20 -20 -20 -20 -20 -20 -20 -20 -20 -20 -20 -20 -20 -20 -20 -20 -20 -20 -20 -20 -20 -20 -20 -20 -20 -20 -20 -20
0 4 -20 -20 -20 -20 -20 -20 -20 -20 -20 -20 -20 -20 -20 -20 -20 -20 -20 -20 -20 -20 -20 -20 -20 -20 -20 -20 -20 -20 -20 -20 -20 -20 -20 -20 -20 -20 -20 -20 -20 -20 -20 -20
-20 -9 -20 -20 -20 -20 -20 -20 -20 -20 -20 -20 -20 -20 -20 -20 -20 -20 -20 -20 -20 -20 -20 -20 -20 -20 -20 -20 -20 -20 -20 -20 -20 -20 -20 -20 -20 -20 -20 -20 -20 -20 -20 -20
4 -8 4 2 -5 -20 -20 -20 -20 -20 -20 -20 -20 -20 -20 -20 -20 -20 -20 -19 -19 -20 -20 -20 -20 -20 -20 -20 -20 -20 -20 -20 -20 -20 -20 -20 -20 -20 -20 -20 -20 -20 -20 -20
-5 9 -10 -20 -20 -20 -20 -20 -20 -20 -20 -20 -20 -20 -20 -20 -20 -20 -19 -19 4 -19 -20 -20 -20 -20 -20 -20 -20 -20 -20 -20 -20 -20 -20 -20 -20 -20 -20 -20 -20 -20 -20 -20
10 -10 -17 7 -20 -20 -20 -19 -20 -20 -20 -16 -19 -3 16 -7 -17 -17 -2 -20 -19 -20 -20 -20 -20 -20 -20 -20 -20 -20 -20 -20 -20 -20 -20 -20 -20 -20 -20 -20 -20 -20 -20 -20
6 18 28 26 22 15 -10 -13 4 10 16 23 21 15 7 -3 14 7 -9 -11 -16 -19 -20 -20 -20 -20 -20 -20 -20 -20 -20 -20 -20 -20 -20 -20 -20 -20 -20 -20 -20 -20 -20 -20
17 11 -12 10 -12 -16 -8 -11 -12 12 19 21 23 24 19 17 11 3 -0 -17 -11 -7 -20 -20 -20 -20 -20 -20 -20 -20 -20 -20 -20 -20 -20 -20 -20 -20 -20 -20 -20 -20 -20 -20
4 -1 2 -7 -13 10 18 21 22 20 18 16 15 16 14 14 9 3 5 2 -7 -20 -20 -20 -20 -20 -20 -20 -20 -20 -20 -20 -20 -20 -20 -20 -20 -20 -20 -20 -20 -20 -20 -20
-6 3 15 16 17 20 21 20 21 19 18 15 13 11 9 9 7 2 -7 -20 -20 -20 -20 -20 -20 -20 -20 -20 -20 -20 -20 -20 -20 -20 -20 -20 -20 -20 -20 -20 -20 -20 -20 -20
18 19 17 14 9 9 10 10 11 11 9 -1 -3 -3 -12 -18 -20 -20 -20 -20 -20 -20 -20 -20 -20 -20 -20 -20 -20 -20 -20 -20 -20 -20 -20 -20 -20 -20 -20 -20 -20 -20 -20 -20
13 12 8 5 2 0 -3 -4 -7 -12 -20 -20 -20 -20 -20 -20 -20 -20 -20 -20 -20 -20 -20 -20 -20 -20 -20 -20 -20 -20 -20 -20 -20 -20 -20 -20 -20 -20 -20 -20 -20 -20 -20 -20
11 12 11 9 7 3 -9 -14 -20 -20 -20 -20 -20 -19 -19 -19 -20 -20 -20 -20 -20 -20 -20 -20 -20 -20 -20 -20 -20 -20 -20 -20 -20 -20 -20 -20 -20 -20 -20 -20 -20 -20 -20 -20
8 10 9 8 8 5 6 6 4 5 2 3 2 -2 -10 -20 -20 -20 -20 -20 -20 -20 -20 -20 -20 -20 -20 -20 -20 -20 -20 -20 -20 -20 -20 -20 -20 -20 -20 -20 -20 -20 -20 -20
4 4 4 4 7 9 9 8 6 -0 -11 -15 -11 -20 -20 -20 -20 -20 -20 -20 -20 -20 -20 -20 -20 -20 -20 -20 -20 -20 -20 -20 -20 -20 -20 -20 -20 -20 -20 -20 -20 -20 -20 -20

GFSNGP_prec_radar_030.txt.gz
Reflectivity
-20 -20 -20 -20 -20 -20 -20 -20 -20 -20 -20 -20 -20 -20 -20 -20 -20 -20 -20 -20 -20 -20 -20 -20 -20 -20 -20 -20 -20 16 -20 -20 -20 -20 -20 -20 -20 -20 -20 -20 -20 -20 -0 -16
-20 -20 -20 -20 -20 -20 -20 -20 -20 -20 -20 -20 -20 -20 -20 -20 -20 -20 -20 -20 -20 -20 -20 -20 -20 -20 -20 -20 -20 -20 -20 -20 -20 -20 -20 -20 -20 -20 -20 -20 -10 -20 -1 -16
-20 -20 -20 -20 -20 -20 -20 -20 -20 -20 -20 -20 -20 -20 -20 -20 -20 -20 -20 -20 -20 -20 -20 -20 -20 -20 -20 -20 -20 -20 -20 -20 -20 -20 -20 -20 -20 -20 -20 -20 -18 -16 4 13
-20 -20 -20 -20 -20 -20 -20 -20 -20 -20 -20 -20 -20 -20 -20 -20 -20 -20 -20 -20 -20 -20 -20 -20 -20 -20 -20 -20 -20 -20 -20 -20 -20 -20 -20 -20 -20 -20 -20 -20 -20 -20 -20 -20
-20 -20 -20 -20 -20 -20 -20 -20 -20 -20 -20 -20 -20 -20 -20 -20 -20 -20 -20 -20 -20 -20 -20 -20 -20 -20 -20 -20 -20 -20 -20 -20 -20 -20 -20 -20 -20 -20 -20 -20 -20 -20 -20 -20
-20 -20 -20 -20 -20 -20 -20 -20 -20 -20 -20 -20 -20 -20 -20 -20 -20 -20 -20 -20 -20 -20 -20 -20 -20 -20 -20 -20 -20 -20 -20 -20 -20 -20 -20 -20 -20 -19 -1 -18 -5 -20 -19 -14
-20 -20 -20 -20 -20 -20 -20 -20 -20 -20 -20 -20 -20 -20 -20 -20 -20 -20 -20 -20 -20 -20 -20 -20 -20 -20 -20 -20 -20 -20 -20 -20 -20 -20 -20 -20 -16 -20 -20 -20 -18 -18 -20 -20
-20 -20 -20 -20 -20 -20 -20 -20 -20 -20 -20 -20 -20 -20 -20 -20 -20 -20 -20 -20 -20 -20 -20 -20 -20 -20 -20 -20 -20 -20 -20 -20 -20 -20 -20 -20 -20 -20 -20 -20 -20 -20 -20 -20
-20 -20 -20 -20 -20 -20 -20 -20 -20 -20 -20 -20 -20 -20 -20 -20 -20 -20 -20 -20 -20 -20 -20 -20 -20 -20 -20 -20 -20 -20 -20 -20 -20 -20 -20 -20 -20 -20 -20 -20 -20 -20 -20 -20
-20 -20 -20 -20 -20 -20 -20 -20 -20 -20 -20 -20 -20 -20 -20 -20 -20 -20 -20 -20 -20 -20 -20 -20 -20 -20 -20 -20 -20 -20 -20 -20 -20 -20 -20 -20 -20 -20 -20 -20 -20 -20 -20 -20
-20 -20 -20 -16 -20 -20 -20 -20 -20 -20 -20 -20 -20 -20 -20 -20 -20 -20 -20 -20 -20 -20 -20 -20 -20 -20 -20 -20 -20 -20 -20 -20 -20 -20 -20 -20 -20 -20 -20 -20 -20 -20 -20 -20
-20 -20 -14 -20 -20 -20 -20 -20 -20 -20 -20 -20 -20 -20 -20 -20 -20 -20 -20 -20 -20 -20 -20 -20 -20 -20 -20 -20 -20 -20 -20 -20 -20 -20 -20 -20 -20 -20 -20 -20 -20 -20 -20 -20
-20 -20 -20 -20 -20 -20 -20 -20 -20 -20 -20 -20 -20 -20 -20 -20 -20 -20 -20 -20 -20 -20 -20 -20 -20 -20 -20 -20 -20 -20 -20 -20 -20 -20 -20 -20 -20 -20 -20 -20 -20 -20 -20 -20
-20 -20 -20 -20 -20 -20 -20 -20 -20 -20 -20 -20 -20 -20 -20 -20 -20 -20 -20 -20 -20 -20 -20 -20 -20 -20 -20 -20 -20 -20 -20 -20 -20 -20 -20 -20 -20 -20 -20 -20 -20 -20 -20 -20
-20 -20 -20 -20 -20 -20 -20 -20 -20 -20 -20 -20 -20 -20 -20 -20 -20 -20 -20 -20 -20 -20 -20 -20 -20 -20 -20 -20 -20 -20 -20 -20 -20 -20 -20 -20 -20 -20 -20 -20 -20 -20 -20 -20
-20 2 -15 -20 -20 -20 -20 -20 -20 -20 -20 -20 -20 -20 -20 -20 -20 -20 -20 -20 -20 -18 -18 -20 -20 -20 -20 -20 -20 -20 -20 -20 -20 -20 -20 -20 -20 -20 -20 -20 -20 -20 -20 -20
-20 -20 -20 13 6 -20 -20 -20 -20 -20 -20 -20 -20 -20 -20 -20 -20 -20 -20 -16 1 2 13 2 -20 -20 -20 -20 -20 -20 -20 -20 -20 -20 -20 -20 -20 -20 -20 -20 -20 -20 -20 -20
-20 -20 -20 -20 -20 -20 -20 -20 -20 -20 -14 -12 -0 26 21 -16 8 19 25 24 24 22 18 15 6 -4 -20 -20 -20 -20 -20 -20 -20 -20 -20 -20 -20 -20 -20 -20 -20 -20 -20 -20
-20 -20 -20 -20 -20 -20 -20 -20 -11 16 20 -3 7 14 25 30 23 24 24 23 21 19 13 8 -3 -16 -18 -20 -18 -20 -20 -20 -20 -20 -20 -20 -20 -20 -20 -20 -20 -20 -20 -20
-14 3 14 -4 21 26 -0 6 20 13 16 25 31 26 14 22 25 22 17 12 5 4 2 2 1 -15 -12 -8 -15 -20 -20 -20 -20 -20 -20 -20 -20 -20 -20 -20 -20 -20 -4 -2
20 -17 -2 14 19 22 25 27 25 25 21 16 15 18 20 20 20 16 12 9 9 6 -3 -15 -8 -9 -18 -20 -20 -20 -20 -20 -20 -20 -20 -18 -18 -20 -20 -3 -4 -3 -1 0
15 17 18 21 20 13 13 15 14 15 16 17 18 16 13 10 5 1 2 2 -0 -7 -18 -20 -20 -20 -20 -20 -20 -20 -20 -20 -20 -20 -12 -6 -4 -3 -2 -3 -4 -2 -2 0
21 21 18 13 9 11 13 14 16 15 14 13 12 10 8 6 -1 -9 -15 -19 -14 -10 -17 -20 -20 -20 -20 -17 -6 -2 -8 -10 -9 -3 -2 1 1 1 -1 -2 -14 -20 -3 -3
11 11 13 14 11 6 4 10 8 8 8 5 -1 -4 -5 -8 -19 -20 -20 -20 -20 -20 -20 -20 -13 -20 -20 -1 -1 -1 -1 2 2 3 3 -18 2 1 -0 -0 -3 -20 -20 -20
14 13 11 8 4 8 8 8 3 -3 -7 -12 -20 -20 -20 -20 -20 -2 -5 -20 -20 -20 -5 -17 -20 -20 -2 -0 1 0 1 3 4 3 3 3 1 1 2 0 -20 -20 -20 -20
-7 -9 -5 -8 -0 -2 -2 -10 -13 -1 -7 -11 -20 -7 -10 -20 -20 -20 -20 -20 -20 -20 -20 -8 -2 -2 1 2 2 2 3 3 3 4 2 2 2 1 -1 -10 -20 -20 -20 -20
-17 -13 -18 -20 -19 -17 -16 -14 -16 -2 -6 1 -6 -20 -20 -8 -20 -20 -20 -20 -20 -20 -20 -6 -1 -12 -3 0 2 3 3 4 -13 1 0 2 1 1 -1 -13 -20 -20 -20 -20

GFSNGP_prec_radar_033.txt.gz
Reflectivity
-7 -20 -20 -20 -20 -20 -20 -20 -20 -20 -20 -20 -18 -9 -20 -20 -20 -20 -20 -20 -20 -20 -20 -20 -20 -20 -20 -20 -20 -20 -20 -20 -17 -17 -20 -14 6 1 -20 -20 -20 -20 -20 -20
-8 -20 -20 -20 -20 -20 -20 -20 -20 -20 -20 -20 -5 -7 -20 -20 -20 -20 -20 -20 -20 -20 -20 -20 -20 -20 -20 -20 -20 23 22 -20 -20 -20 -20 -20 -20 -20 -20 -20 -20 -20 -20 -20
-12 -20 -20 -20 -20 -20 -20 -20 -20 -20 -20 -20 -20 -20 -20 -20 -20 -20 -20 -20 -20 -20 -20 -20 -20 -20 -9 8 -5 -20 -20 -20 -20 -20 -20 -20 -20 -20 -20 -20 -20 -20 -0 -16
4 -19 7 -20 -20 -20 -20 -20 -20 -20 -20 -20 -20 -20 -20 -20 -20 -20 -20 -20 -20 -20 -20 -20 -20 -20 -20 -20 -20 -20 -20 -20 -20 -20 -20 -20 -20 -20 -20 -20 -20 -20 -20 -20
18 -20 -20 -20 -20 -20 -20 -20 -20 -20 -20 -20 -20 -20 -20 -20 -20 -20 -20 -20 -20 -20 -20 -20 -20 -20 -20 -20 -20 -20 -20 -20 -20 -20 -20 -20 -20 -20 -20 -20 -20 -20 -20 -20
1 -20 -20 -20 -20 -20 -20 -20 -20 -20 -20 -20 -20 -20 -20 -20 -20 -20 -20 -20 -20 -20 -20 -20 -20 -20 -20 -20 -20 -20 -20 -20 -20 -20 -20 -20 -20 -20 -18 -19 -20 -20 -20 -20
23 -3 -20 -20 -20 -20 -20 -20 -20 -20 -20 -20 -20 -20 -20 -20 -20 -20 -20 -20 -20 -20 -20 -20 -20 -20 -20 -20 -20 -20 -20 -20 -20 -20 -20 -20 -20 -20 -20 -20 -20 -16 -20 -20
18 12 -20 -19 -20 -20 -20 -20 -20 -20 -20 -20 -20 -20 -20 -20 -20 -20 -20 -20 -20 -20 -20 -20 -20 -20 -20 -20 -20 -20 -20 -20 -20 -20 -20 -20 -20 -20 -20 -20 -20 -20 -20 -20
-18 -20 -15 -11 -20 -20 -20 -20 -20 -20 -20 -20 -20 -20 -20 -20 -20 -20 -20 -20 -20 -20 -20 -20 -20 -20 -20 -20 -20 -20 -20 -20 -20 -20 -20 -20 -20 -20 -20 -20 -20 -20 -20 -20
-12 -20 -20 -20 -20 -20 -20 -20 -20 -20 -20 -20 -20 -20 -20 -20 -20 -20 -20 -20 -20 -20 -20 -20 -20 -20 -20 -20 -20 -20 -20 -20 -20 -20 -20 -20 -20 -20 -20 -20 -20 -20 -20 -20
-20 -20 -20 -20 -20 -20 -20 -20 -20 -20 -20 -20 -20 -20 -20 -20 -20 -20 -20 -20 -20 -20 -20 -20 -20 -20 -20 -20 -20 -20 -20 -20 -20 -20 -20 -20 -20 -20 -20 -20 -20 -20 -20 -20
-20 4 14 -19 15 -3 -20 -20 -20 -20 -20 -20 -20 -20 -20 -20 -20 -20 -20 -20 -20 -20 -20 -20 -20 -20 -20 -20 -20 -20 -20 -20 -20 -20 -20 -20 -20 -20 -20 -20 -20 -20 -20 -20
-4 11 -2 -20 -20 -20 -20 -20 -20 -20 -20 -20 -20 -20 -20 -20 -20 -20 -20 -20 -20 -20 -20 -20 -20 -20 -20 -20 -20 -20 -20 -20 -20 -20 -20 -20 -20 -20 -20 -20 -20 -20 -20 -20
-12 -15 1 -9 14 -17 -20 -20 -20 -20 -20 -20 -20 -20 -20 -20 -20 -20 -20 -20 -20 -20 -20 -20 -20 -20 -20 -18 -18 -20 -20 -20 -20 -20 -20 -20 -20 -20 -20 -20 -20 -20 -20 -20
-20 -20 -16 -12 -20 -12 -20 -12 -20 -20 -20 -20 -20 -20 -20 -20 -20 -20 -20 -20 -20 -20 -20 -20 -20 -19 -18 -18 -20 -20 -20 -20 -20 -20 -20 -20 -20 -20 -20 -20 -20 -20 -20 -20
-19 -20 -20 -20 -19 -20 -20 -20 -20 -20 -20 -20 -20 -20 -20 -20 -20 -20 -20 -20 -20 -20 -20 -20 -13 2 3 -3 -2 3 -3 -11 -11 -19 -20 -20 -20 -20 -20 -20 -20 -20 -20 -20
-20 -20 -20 -20 -20 -3 -20 6 -20 -19 -20 -20 -20 -20 -20 -20 -20 -20 -20 -20 -20 -20 -18 -5 6 17 20 19 18 13 10 5 -11 -20 -20 -20 -20 -20 -20 -20 -20 -20 -20 -20
-20 -20 -20 -20 -20 -20 -20 -20 -16 -15 -20 -15 -16 -13 1 2 -3 2 -7 -4 14 23 26 27 20 19 19 16 7 -7 -20 -20 -20 -20 -19 -19 -20 -20 -20 -20 -20 -20 -20 -20
-20 -20 -20 -20 -20 -20 -20 -20 -20 -14 -1 -18 -20 -18 -9 10 20 23 24 26 27 25 16 15 16 18 13 6 0 -1 -4 -15 -20 -20 -20 -20 -20 -20 -20 -20 -20 -20 -20 -7
-20 -20 -20 -20 -20 -20 -20 -20 -19 -3 12 19 24 25 23 20 24 26 24 15 16 15 14 15 10 6 7 4 -10 -19 -18 -20 -20 -20 -20 -20 -11 -5 -7 -20 -20 -4 2 2
-4 1 7 15 15 17 22 24 24 23 24 24 27 27 21 16 17 18 14 12 14 10 8 5 0 -6 -15 -20 -16 -20 -20 -20 -20 -20 -4 -2 -2 -2 -1 1 1 2 3 2
24 27 27 25 21 20 19 18 20 20 19 22 21 16 11 14 13 9 5 4 5 2 -7 -19 -19 -13 -15 -20 -20 -8 -20 -20 -16 -2 -1 1 1 0 1 2 2 3 2 2
19 20 21 21 21 18 16 16 17 16 16 14 11 8 7 8 8 2 -2 -11 -13 -15 -15 -15 -18 -20 -20 -8 -1 -1 -1 -1 -0 0 1 3 3 3 2 3 3 2 2 1
6 5 8 11 11 7 -3 8 4 8 5 7 8 9 6 1 -5 -9 -6 -6 -12 -7 -6 -11 -12 -20 -20 -1 1 1 1 3 2 4 4 -18 2 4 3 2 2 2 1 0
12 11 10 9 8 12 10 10 6 2 -3 -3 -11 -16 -14 -18 -6 5 -1 -16 -18 0 8 -20 -20 -20 -0 0 3 1 3 3 6 0 -1 1 3 3 4 2 1 2 -2 -3
-9 -11 -3 -3 3 3 3 -3 -1 3 -1 2 1 3 1 -0 1 3 1 -3 -3 -20 1 2 3 -2 2 5 5 2 3 4 4 6 3 2 3 4 3 1 2 1 0 -0
-14 -16 -20 -20 -3 -2 -3 -2 1 2 -1 7 5 3 3 5 -1 2 -14 4 4 2 6 6 5 -9 1 2 1 5 5 5 -0 -2 1 2 3 2 1 2 2 0 -2 -2

GFSNGP_prec_radar_036.txt.gz
Reflectivity
-20 -20 -18 0 -20 -20 -20 16 11 -20 13 -20 -11 -19 16 29 3 4 -20 -20 -20 -20 -20 -20 -20 -20 -20 -20 3 -16 -17 -20 -20 -20 -20 -20 2 -20 0 -15 -15 -20 -13 -8
-20 -17 -20 -20 7 -9 -20 -20 -3 -2 -20 -20 -20 16 -10 -20 1 -17 -20 -20 -20 -20 -20 -20 -20 -20 -20 -20 -20 17 -20 -20 -20 22 -20 -20 -20 -20 -20 -20 -20 -20 -20 -20
-12 -20 -20 -19 -20 -20 -20 -20 -20 -20 -20 -20 -20 -20 -20 -20 -20 -20 -20 -20 -20 -20 -20 -20 -20 -20 -20 -20 -20 -20 -20 -20 -20 -20 -20 -20 -20 -20 -20 -20 -20 -20 -20 -20
15 -20 -20 -20 -20 -18 -20 -20 -20 -20 -20 -20 -20 -20 -20 -7 -2 -20 -20 -20 -20 -20 -20 -20 -20 -20 -20 -20 -20 -20 -20 -20 -20 -20 -20 -20 -20 -20 -20 -20 -20 -20 -20 -20
9 -20 -20 -20 -19 -8 -20 -20 -20 -20 -20 -20 -20 -20 -20 -20 -20 -20 -20 -20 -20 -20 -20 -20 -20 -20 -20 -20 -20 -20 -20 -20 -20 -20 -20 -20 -20 -20 -20 -20 -20 -20 -20 -20
8 -16 -20 -20 -5 -1 -20 -20 -20 -13 -20 -20 -20 -20 -20 -20 -20 -20 -20 -20 -20 -20 -20 -20 -20 -20 -20 -20 -20 -20 -20 -20 -20 -20 -20 -20 -20 -20 -20 -20 -20 -20 -20 -20
7 -4 -18 -20 10 -8 8 -11 -20 -9 -20 -17 0 -15 -20 -20 -20 -20 -20 -20 -20 -20 -20 -20 -20 -20 -20 -20 -20 -20 -20 -20 -20 -20 -20 -20 -20 -20 -20 -20 -20 -20 -20 -20
20 8 -20 1 9 -1 -20 -13 7 -20 5 -18 -20 -20 -20 -20 -20 -20 -20 -20 -20 -20 -20 -20 -20 -20 -20 -20 -20 -20 -20 -20 -20 -20 -20 -20 -20 -20 -20 -20 -20 -20 -20 -20
-16 0 -20 17 13 -5 -17 -20 -20 -20 -20 -20 -20 -20 -20 -20 -20 -20 -20 -20 -20 -20 -20 -20 -20 -20 -20 -20 -20 -20 -20 -20 -20 -20 -20 -20 -20 -20 -20 -20 -20 -20 -20 -20
12 -18 29 16 13 -20 -3 -20 -20 -20 -20 -20 -20 -20 -20 -20 -20 -20 -20 -20 -20 -20 -20 -20 -20 -20 -20 -20 -20 -20 -20 -20 -20 -20 -20 -20 -20 -20 -20 -20 -20 -20 -20 -20
1 -16 2 16 21 16 -5 -20 -20 -20 -20 -20 -20 -20 -20 -20 -20 -20 -20 -20 -20 -20 -20 -20 -20 -20 -20 -20 -20 -20 -20 -20 -20 -20 -20 -20 -20 -20 -20 -20 -20 -20 -20 -20
-6 19 21 24 29 11 -19 -20 -20 -20 -20 -20 -20 -20 -20 -20 -20 -20 -20 -20 -20 -20 -20 -20 -20 -20 -20 -20 -20 -20 -20 -20 -20 -20 -20 -20 -20 -20 -20 -20 -20 -20 -20 -20
5 17 17 -4 3 8 -20 -1 16 -6 -20 -20 -20 -20 -20 -20 -20 -20 -20 -20 -20 -20 -20 -20 -20 -20 -20 -20 -20 -20 -20 -20 -20 -20 -20 -20 -20 -20 -20 -20 -20 -20 -20 -20
-2 -8 -0 -18 -13 -18 -20 4 24 -19 -20 -20 -20 -20 -20 -20 -20 -20 -20 -20 -20 -20 -20 -20 -20 -20 -20 -20 -20 -20 -20 -20 -20 -20 -20 -18 -9 1 -20 -20 -20 -20 -20 -20
-20 -20 -20 -18 -4 1 -15 -20 -20 -14 -18 -2 -20 -20 -20 -20 -20 -20 -20 -20 -20 -20 -20 -20 -20 -20 -20 -20 -20 -20 -8 -2 -19 -11 -10 6 4 -16 -9 -19 -20 -20 -20 -20
-20 -20 -20 -20 -20 -19 3 -16 -10 -17 7 -20 -20 -20 -20 -20 -20 -20 -20 -20 -20 -20 -20 -20 -20 -20 -20 -20 -10 -0 3 13 18 14 11 9 3 -3 -2 -2 -5 -20 -20 -20
-20 -20 -20 -20 -20 -20 -20 -20 -20 -20 -20 -20 -20 -20 -20 -20 -20 -0 -6 -20 -18 -20 -8 -8 -20 -20 -12 10 22 24 21 17 13 12 9 6 -4 -4 -7 -14 -20 -20 -20 -20
-20 -20 -20 -20 -20 -20 -20 -20 -20 -20 -20 -20 -8 15 27 2 -19 13 10 -8 -5 -4 -6 16 21 21 22 23 22 20 17 15 11 7 1 -17 -18 -20 -20 -20 -20 -20 -20 -20
-20 -20 -20 -20 -11 -20 -20 -20 -20 -20 -20 -20 -20 -20 -16 4 18 18 15 20 21 23 25 26 24 22 18 16 14 15 14 11 6 -5 -20 -20 -20 -20 -20 -16 -20 -20 -20 -10
-20 -20 -20 -20 -20 -20 -20 -20 -19 -17 -8 -6 12 19 20 21 21 21 23 24 27 26 25 22 21 20 16 11 10 9 3 -3 -19 -20 -20 -20 -20 -20 -20 -14 -20 -5 -18 -20
-1 -2 -7 -1 0 -3 -7 -2 10 18 19 20 23 25 25 22 23 23 22 20 20 19 20 20 18 15 12 4 -9 -5 -15 -20 -20 -20 -20 -2 -18 -12 -9 -7 -6 -19 -17 -20
17 18 18 20 20 21 20 19 21 24 23 20 20 19 16 13 11 13 14 12 15 16 15 12 8 6 -3 -12 -20 -14 -20 -20 -20 -4 -1 -3 -10 -13 -20 -14 -20 -20 -20 -20
10 13 16 16 15 17 16 17 18 17 18 18 18 16 14 12 13 11 11 11 5 -4 -4 -10 -19 -20 -20 -17 -5 -1 1 -20 -0 4 2 4 3 -14 -20 -9 -20 -20 -10 -8
13 14 14 14 12 10 6 12 8 6 3 5 7 9 8 4 3 1 -1 -6 -13 -20 -20 -20 -20 -20 -20 0 6 2 0 -18 -3 8 -10 -19 -4 -0 -7 -18 2 -20 -7 -20
-5 -0 1 -1 -3 6 5 5 3 7 9 10 9 7 1 -8 -10 6 -15 -20 -20 1 -20 -20 -20 -20 5 7 7 3 2 5 -13 -20 -4 -7 4 1 -0 5 -11 -20 -20 -20
-10 -1 -7 -15 -1 3 5 -14 -10 3 3 1 5 6 5 6 6 -10 -20 -20 -20 -15 -10 8 -20 -20 7 -20 -20 -20 5 8 6 5 -20 -14 -20 -17 -8 -2 -20 -20 -20 -20
-20 -14 -18 -16 -4 -6 -17 -16 0 -14 -20 11 9 7 6 11 9 -2 7 -1 2 9 6 -4 -2 2 7 -20 5 2 2 4 -5 -18 -17 -9 -15 -20 -5 -14 -20 -20 -20 -20

GFSNGP_prec_radar_039.txt.gz
Reflectivity
-20 -20 -20 -1 -20 -20 -20 -20 -20 -20 -20 -20 -20 -11 13 16 -20 4 -6 -8 -20 -20 -20 -20 -20 -20 -20 -20 0 -20 -20 -20 -20 -20 -20 -20 -4 15 -20 2 25 4 -20 -8
-20 -20 -20 -20 -20 -20 -20 -20 -20 -20 -20 -20 -20 -20 13 -20 -20 -17 -20 -20 -20 -20 -20 -20 -20 -20 -20 -20 -20 -20 -20 -20 -20 -20 -20 -2 -20 -20 11 -20 -20 -20 -13 8
-13 -13 -19 1 -20 -20 -20 -20 -20 -20 -20 -20 -20 -9 -15 -20 -17 -20 -20 -20 -20 -20 -20 -20 -20 -20 -20 -20 -20 -20 -20 -20 -20 -20 -20 -20 -20 -20 -20 -20 -20 -20 -20 -20
-20 -6 17 17 1 -20 -20 -20 -20 -20 -20 -20 -16 -13 20 12 14 -13 -20 -20 -20 -20 -20 -20 -20 -20 -20 -20 -20 -20 -20 -20 -20 -20 -20 -20 -20 -20 -20 -20 -20 -20 -20 -20
3 -13 16 -19 -20 -20 -20 -20 -20 -20 -20 -20 -20 -20 -15 -20 -20 -20 -20 -20 -20 -20 -20 -20 -20 -20 -20 -20 -20 -20 -20 -20 -20 -20 -20 -20 -20 -20 -20 -20 -20 -20 -20 -20
0 9 -20 -20 -20 -20 -20 -20 -20 -20 -20 -20 -20 -20 -20 -20 -20 -20 -20 -20 -20 -20 -20 -20 -20 -20 -20 -20 -20 -20 -20 -20 -20 -20 -20 -20 -20 -20 -20 -20 -20 -20 -20 -20
7 14 -20 -20 -20 -16 -13 -19 -20 3 -20 -20 -20 -20 -20 -20 -20 -20 -20 -20 -20 -20 -20 -20 -20 -20 -20 -20 -20 -20 -20 -20 -20 -20 -20 -20 -20 -20 -20 -20 -20 -20 -20 -20
40 -1 -20 -5 -20 8 5 -8 1 -8 -20 -20 -20 -20 -20 -20 -20 -20 -20 -20 -20 -20 -20 -20 -20 -20 -20 -20 -20 -20 -20 -20 -20 -20 -20 -20 -20 -20 -20 -20 -20 -20 -20 -20
20 25 18 -4 -7 -10 3 4 -11 -16 -20 -20 -20 -20 -20 -20 -20 -20 -20 -20 -20 -20 -20 -20 -20 -20 -20 -20 -20 -20 -20 -20 -20 -20 -20 -20 -20 -20 -20 -20 -20 -20 -20 -20
-2 -15 1 11 -8 -13 -11 7 20 28 19 -2 -20 -20 -20 -20 -20 -20 -20 -20 -20 -20 -20 -20 -20 -20 -20 -20 -20 -20 -20 -20 -20 -20 -20 -20 -20 -20 -20 -20 -20 -20 -20 -20
-6 12 22 -20 -20 -18 17 2 -20 -20 23 -20 -14 -20 -20 -20 -20 -20 -20 -20 -20 -20 -20 -20 -20 -20 -20 -20 -20 -20 -20 -20 -20 -20 -20 -20 -20 -20 -20 -20 -20 -20 -20 -20
3 17 16 -19 4 31 7 22 -15 -13 13 -11 -20 -17 -20 -20 -20 -20 -20 -20 -20 -20 -20 -20 -20 -20 -20 -20 -20 -20 -20 -20 -20 -20 -20 -20 -20 -20 -20 -14 -18 -20 -20 -20
-10 -6 -20 11 17 13 14 25 29 28 29 3 -20 -20 -20 -20 -20 -20 -20 -20 -20 -20 -20 -20 -20 -20 -20 -20 -20 -20 -20 -20 -20 -20 -20 -20 -18 -8 -2 8 13 2 -9 -6
-17 -20 -20 -4 -12 -11 5 7 -6 -7 -20 -20 -18 -2 -20 -20 -20 -20 -20 -20 -20 -20 -20 -20 -20 -20 -20 -20 -20 -20 -20 -20 -20 -20 -12 -4 -5 -1 0 6 14 14 10 3
-20 -20 -20 -20 -18 10 4 4 -20 -20 -20 -20 -20 -20 -20 -20 -20 -20 -20 -20 -20 -20 -20 -20 -20 -20 -20 -20 -20 -20 -20 -19 -18 -19 3 10 13 18 14 9 8 3 -4 -13
-20 -20 -20 -20 -20 -20 -20 -20 -20 -20 -20 -20 -20 -20 -20 -20 -9 -19 -20 -20 -20 -20 -20 -20 -20 -20 4 1 -7 -16 -13 -8 6 22 20 17 16 13 8 7 7 5 1 -2
-20 -20 -20 -20 -20 -20 -20 -20 -20 -20 -20 -20 -20 -20 -19 11 17 21 -5 -10 -19 -15 -8 5 20 18 17 19 17 21 24 23 20 20 17 15 13 5 3 7 6 -0 -7 -15
26 -5 -20 -0 -20 -20 -20 -20 -20 -20 -20 -20 -20 -20 -20 -14 -20 -1 17 26 30 28 22 25 26 23 21 23 23 23 21 18 16 15 13 11 10 9 5 -0 -4 -14 -20 -20
-20 -20 -20 -20 -20 -20 -20 -20 -14 -20 -20 2 21 1 -10 8 17 22 24 21 18 14 21 23 22 20 20 18 16 15 17 16 14 13 13 10 3 -6 -14 -18 -19 -17 -20 -20
-13 -11 -20 -20 -20 -20 -20 -16 -18 -15 -1 4 14 18 20 21 21 20 17 10 14 17 18 16 13 11 11 10 11 12 11 10 6 2 -2 -10 -20 -15 -16 -20 -20 -20 -20 -20
12 11 10 7 3 3 6 7 0 9 15 13 8 11 10 13 16 17 15 5 12 14 14 15 16 15 13 8 7 2 -6 -19 -20 -20 -20 -20 -20 -20 -20 -20 -20 -20 -20 -20
9 6 7 2 -5 3 9 8 6 11 14 15 15 15 14 16 19 19 18 16 16 14 10 9 9 5 -1 -8 -16 -20 -20 -20 -20 -20 -20 -20 -20 -20 -20 -20 -20 -20 -20 -20
-8 -14 -12 -15 -2 11 10 11 12 9 9 9 10 11 11 12 12 11 9 9 8 7 3 -0 -9 -19 -20 -20 -20 -20 -20 -20 -20 -20 -20 -20 -20 -20 -20 -20 -20 -20 -20 -20
-20 -20 -19 -20 -20 -20 -20 -20 -19 -17 -14 -11 -6 -2 -1 1 1 0 -6 -18 -20 -20 -20 -20 -20 -20 -20 -20 -20 -20 -20 -20 -20 -20 -20 -20 -20 -20 -20 -20 -20 -20 -20 -20
-20 -20 -20 -20 -20 -20 -20 -4 -20 -20 -20 -20 -20 -20 -20 -20 -20 -18 -20 -20 -20 -20 -20 -20 -20 -20 -20 -20 -20 -20 -20 -20 -20 -20 -20 -20 -20 -20 -20 -20 -20 -20 -20 -20
-19 -18 -20 -20 -20 -20 -20 -20 -20 -8 -12 -12 -4 -20 -20 -20 -20 -19 -20 -20 -20 -20 -20 -20 -20 -20 -20 -20 -20 -20 -20 -20 -20 -20 -20 -20 -20 -20 -20 -20 -20 -20 -20 -20
-20 -20 -20 -20 -20 -20 -20 -20 -20 -20 -20 -20 -20 -20 -20 -20 -20 -20 -20 -20 -20 -20 -20 -20 -20 -20 -20 -20 -20 -20 -20 -20 -20 -20 -20 -20 -20 -20 -20 -20 -20 -20 -20 -20

GFSNGP_prec_radar_045.txt.gz
Reflectivity
-20 -7 -20 -20 -20 -20 -20 -20 -20 -20 -20 -20 -20 -20 -20 -20 -20 -20 -20 -20 -20 -20 -20 -20 -20 -20 -20 -20 -20 -20 -20 -20 -20 -20 -20 -16 -7 -19 -20 6 10 -16 -20 -20
-20 -19 -3 -20 -20 -20 -20 -20 -20 -20 -20 -20 -20 -20 -20 -20 -20 -20 -20 -20 -20 -20 -20 -20 -20 -20 -20 -20 -20 -20 -20 -20 -20 -20 -20 -20 -20 -20 -20 -20 -13 27 -15 16
3 -20 -7 -20 -20 -20 -20 -20 -20 -20 -20 -14 -20 -20 -20 -20 -20 -20 -20 -20 -20 -20 -20 -20 -20 -20 -20 -20 -20 -20 -20 -20 -20 -20 21 -20 -20 -18 -20 3 7 7 2 -2
-19 -17 4 -0 -20 -20 -20 -20 -16 -20 -18 13 -15 -20 -20 -20 -20 -20 -20 -20 -20 -20 -20 -20 -20 -20 -20 -20 -20 -20 -20 -20 -20 -18 -20 -20 -20 -18 -1 26 -5 -15 6 8
-20 -20 -10 3 -19 1 -5 -20 -20 8 -4 -16 -13 -19 -20 -20 -20 -20 -20 -20 -20 -20 -20 -20 -20 -20 -20 -20 -20 -20 -20 -20 -20 12 19 5 -16 -18 16 -20 -20 -19 -20 -20
-12 -20 -20 -20 -20 13 11 -9 -20 -20 -9 -20 -20 -20 -20 -20 -20 -20 -20 -20 -20 -20 -20 -20 -20 -20 -20 -20 -20 -20 -20 -20 -20 -20 -20 -20 -20 -20 11 -20 -20 -20 -20 -20
-3 -20 -20 -20 0 -1 -17 -5 -20 -20 -20 -20 -20 -20 -20 -19 -20 -20 -20 -20 -20 -20 -20 -20 -20 -20 -20 -20 -20 -20 -18 9 -20 -20 -20 -20 -20 -20 -20 -20 -20 -20 -20 -20
-13 -4 -20 -17 0 -13 -0 16 -20 -20 -20 -20 -20 -20 -20 -20 -20 -20 -20 -20 -20 -20 -20 -20 -20 -20 -20 -20 -20 -20 -19 -20 -20 -20 -20 -20 -20 -20 -20 -20 -20 -20 -20 -20
-20 -20 -20 -1 7 -10 14 26 -18 -20 -20 -20 -20 -20 -20 -20 -20 -20 -20 -20 -20 -20 -20 -20 -20 -20 -20 23 -20 -20 -20 -20 -20 -20 -20 -20 -20 -20 -20 -20 -20 -20 -20 -20
-20 -20 -20 1 6 4 7 5 22 5 -20 -20 -20 -20 -20 -20 -20 -20 -20 -20 -20 -15 -17 -20 -20 -20 -20 21 -20 -20 -20 -20 -20 -20 -20 -20 -20 -20 -20 -20 -20 -20 -20 -20
-20 -20 -16 2 -2 10 6 12 33 4 -15 -11 1 0 -20 -20 -20 -20 -20 -20 -0 5 -20 -20 -20 -20 -20 -20 -20 -20 -20 -20 -20 -20 -20 -20 -20 -20 -20 -20 -15 -20 -20 -20
-20 -20 -18 -17 4 7 8 -20 13 23 -11 -10 -20 -20 -17 -11 3 -20 -10 11 -20 -20 -20 -20 -20 -20 -20 -20 -20 -20 -20 -20 -20 -20 -20 -20 -20 -19 -1 -20 -20 -20 -20 -20
-6 -20 -19 -5 -5 -8 5 -20 -3 -12 -17 5 13 -20 -7 -19 -19 -20 -20 -20 -20 -20 -20 -17 -10 -20 -20 -20 -20 -20 -20 -20 -20 -20 -20 -20 -20 -20 -20 -20 -19 -17 -13 -18
-20 -17 13 -5 17 -20 -5 -5 -15 -16 -17 -20 -20 -15 -20 -20 -20 -20 20 28 14 -18 3 -16 -19 -8 -13 -20 -20 -20 -20 -20 -20 -20 -20 -19 -17 -4 10 12 10 14 16 13
-20 -20 -6 17 19 -20 -5 -20 -20 -20 -20 -20 -20 -20 -20 -7 -18 -20 19 2 15 11 25 22 10 -4 -17 -20 -20 -8 5 4 4 9 12 12 7 3 3 5 6 8 13 10
-20 -15 -20 -19 7 -16 -20 -20 -20 -20 -20 -20 -20 -20 -14 -20 -20 0 14 -6 -20 2 13 26 12 19 6 18 26 23 21 19 15 10 8 11 15 16 15 14 14 17 17 16
-20 -5 11 -17 -20 -3 -20 -20 -20 -20 -20 -20 -20 -20 -20 -20 -12 17 24 11 22 27 13 16 24 25 23 22 17 9 8 10 10 11 11 8 8 4 -9 -3 -3 -0 1 1
13 6 -7 -20 -20 -15 -1 0 5 2 12 -3 -14 -20 -20 -20 -4 12 19 13 5 8 8 15 16 16 14 9 5 8 12 13 10 2 -10 -20 -20 -20 -17 -18 -20 -20 -20 -18
20 18 20 3 -13 12 14 7 2 13 11 -17 -19 4 5 -7 -7 3 7 5 13 15 18 16 14 13 11 11 8 3 -11 -20 -20 -20 -20 -17 -19 -20 -20 -20 -20 -20 -20 -20
7 3 -2 -10 -7 -6 -3 0 0 5 10 4 12 16 14 16 16 16 16 9 6 9 10 7 4 1 -7 -18 -20 -20 -20 -20 -20 -20 -20 -20 -20 -20 -20 -20 -20 -20 -20 -20
-8 0 -8 -15 1 4 7 14 13 13 17 18 16 16 14 15 14 15 12 6 8 6 6 5 3 1 -3 -11 -20 -20 -20 -20 -20 -20 -20 -20 -20 -20 -20 -20 -20 -20 -20 -20
8 2 5 11 13 14 15 14 12 9 9 8 9 11 10 7 3 -1 -0 -3 -4 -13 -20 -20 -20 -20 -20 -20 -20 -20 -20 -20 -20 -20 -20 -20 -20 -20 -20 -20 -20 -20 -20 -20
19 16 18 19 18 16 14 9 -0 -10 -16 -16 -15 -19 -20 -19 -20 -20 -20 -12 -20 -20 -20 -20 -20 -20 -20 -20 -20 -20 -20 -20 -20 -20 -20 -20 -20 -20 -20 -20 -20 -20 -20 -20
7 -1 -3 -12 -20 -20 -20 -20 -20 -20 -20 -20 -20 -20 -20 -20 -20 -20 -20 -20 -20 -20 -20 -20 -20 -20 -20 -20 -20 -20 -20 -20 -20 -20 -20 -20 -20 -20 -20 -20 -20 -20 -20 -20
-20 -20 -20 -20 -20 -20 -17 -20 -20 -20 -20 -20 -20 -20 -20 -20 -20 -20 -20 -20 -20 -20 -20 -20 -20 -20 -20 -20 -20 -20 -20 -20 -20 -20 -20 -20 -20 -20 -20 -20 -20 -20 -20 -20
-20 -20 -20 -20 -20 -20 -20 -20 -20 -20 -20 -20 -20 -20 -20 -20 -20 -20 -20 -20 -20 -20 -20 -20 -20 -20 -20 -20 -20 -20 -20 -20 -20 -20 -20 -20 -20 -20 -20 -20 -20 -20 -20 -20
-20 -20 -20 -20 -20 -20 -20 -20 -20 -20 -20 -20 -20 -20 -20 -20 -20 -20 -20 -20 -20 -20 -20 -20 -20 -20 -20 -20 -20 -20 -20 -20 -20 -20 -20 -20 -20 -20 -20 -20 -20 -20 -20 -20

GFSNGP_prec_radar_048.txt.gz
Reflectivity
-20 -20 -20 -20 -20 -20 -20 -20 -20 -20 -20 -20 -20 -20 -20 -20 -20 -20 -20 -20 -20 -20 -20 -20 -20 -20 -20 -20 -20 -20 -20 -20 -20 -20 -20 -20 -20 17 -5 -6 -5 27 -8 -8
-20 -20 -20 -20 -20 -20 -20 -20 -20 -20 -20 -20 -20 -20 -20 -20 -20 -20 -20 -20 -20 -20 -20 -20 -20 -20 -20 -20 -20 -20 -20 -20 -20 -20 -20 -20 -20 16 -20 22 -20 25 31 -20
-20 -20 -20 -20 -20 -20 -20 -20 -20 -20 -20 -20 -20 -20 -20 -20 -20 -20 -20 -20 -20 -20 -20 -20 -20 -20 -20 -20 -20 -20 -20 -20 -20 -20 -20 -20 -20 -20 -19 -20 25 -20 6 8
-20 -20 -12 -20 -20 -9 -20 -20 -20 -20 -20 -20 -20 -20 -20 -20 -20 -20 -20 -20 -20 -20 -20 -20 -20 -20 -20 -20 -20 -20 -20 -20 -20 -20 -20 -20 -20 -20 -20 -14 23 -15 -16 -7
-20 -13 -20 -20 -20 -20 -19 -20 -20 -20 -20 -20 -20 -20 -20 -20 -20 -20 -20 -20 -20 -20 -20 -20 -20 -20 -20 -20 -20 -20 -20 -20 -20 -20 -20 -14 4 -2 -18 -18 14 24 15 21
-20 -20 -20 -20 -20 -20 -20 -20 -20 -20 -20 -20 -20 -20 -20 -20 -19 -20 -18 -20 -20 -20 -20 -20 -14 -19 -20 -20 -20 -20 -20 -20 -20 -20 -20 -3 10 15 15 13 18 22 13 19
-2 5 -20 -20 -20 -20 -20 -20 -20 -20 -20 -20 -20 -20 -20 -20 -20 -20 -12 8 -5 -20 -20 -20 -20 -20 -20 -20 -20 -20 -20 -20 -7 -0 12 -20 -20 -16 -5 4 6 13 13 3
6 -9 -20 -20 -20 -20 -20 -20 -20 -20 -20 -20 -20 -20 -20 -20 -20 -20 -20 -20 -15 -20 -20 -20 -20 -20 -20 -20 -20 -20 -20 8 -8 -20 -20 -14 -2 10 19 19 9 -16 -20 -20
-20 -20 -20 -20 -20 -20 -20 -20 -20 -20 -20 -20 -20 -20 -20 -20 -20 -20 -20 -20 -20 -20 -20 -20 -20 -20 -20 -20 -20 -20 -17 -20 -20 -2 11 14 6 20 17 4 -12 -20 -20 -20
-20 -20 -20 -20 -20 -20 -20 -20 -20 -20 -20 6 -20 -5 -20 -20 -20 -20 -20 -20 -20 -20 -20 -20 -20 -4 -11 22 -20 -20 -20 18 -20 -20 -18 -19 2 -13 -20 -20 -20 -20 -20 -20
-20 -20 -20 -20 -20 -20 -20 -3 -17 -2 -7 -9 15 -20 -20 -7 -5 -13 -20 -20 -20 -20 -20 -20 -20 -20 -20 -8 -5 -16 -20 -20 -20 -20 -20 -20 -20 -20 -20 -20 -20 -20 -20 -20
-20 -20 -20 -20 -20 -20 -20 -18 -14 -11 5 30 35 24 -9 -20 0 -20 -20 -16 -20 -20 -20 -20 -14 -20 -20 -20 -20 -20 -20 -20 -20 -20 -20 -20 -20 -20 -17 1 7 6 8 -3
-20 -20 -20 -20 -20 -20 -20 9 14 22 19 14 26 12 -20 -20 9 -15 -13 -9 4 25 11 -7 22 8 -20 -20 -20 -20 -20 -20 -20 -20 -20 -20 -20 -20 -20 3 12 17 17 15
-15 -16 -16 -20 -20 -20 -20 18 8 14 -7 -19 18 1 -20 -20 -19 4 -20 7 13 10 -12 -3 1 22 18 -15 -17 -16 -20 -8 -19 -16 -14 -15 -6 -1 2 6 1 3 1 -1
28 10 13 -20 -20 -20 -20 3 -8 -15 -20 -20 -20 -15 -20 -20 -20 -19 -17 -7 -12 -8 12 11 27 40 35 29 24 27 24 23 24 24 22 17 12 7 5 7 12 13 15 16
-20 -16 6 -20 -20 -20 -20 -17 -20 -20 6 -20 -20 -18 -20 -20 -17 -16 -20 -20 -4 15 13 8 21 24 26 26 22 23 22 17 14 13 -1 -3 2 8 12 13 13 11 8 7
-20 -15 -13 -20 -20 -20 -20 -14 -20 -20 -20 -20 -20 -20 -20 -20 -20 -20 -15 -15 -19 -14 5 18 28 28 24 11 14 19 21 20 19 13 12 11 10 9 7 7 9 9 5 1
-8 17 13 -10 -19 -17 3 5 -19 -17 -16 7 17 15 4 8 -16 -12 7 1 9 21 27 27 21 20 20 19 16 11 6 9 9 7 4 1 -4 -13 -18 -20 -20 -20 -20 -20
-13 -8 7 -3 12 4 -9 -0 5 4 -14 0 16 18 15 7 1 7 11 7 8 1 13 11 10 8 7 5 1 -5 -20 -20 -20 -20 -20 -20 -20 -20 -20 -20 -20 -20 -20 -20
9 -3 9 11 -9 -10 5 5 2 -4 12 10 11 -5 5 12 13 13 14 10 9 11 -0 -15 -20 -20 -20 -20 -20 -20 -20 -20 -20 -20 -20 -20 -20 -20 -20 -20 -20 -20 -20 -20
6 7 3 6 3 -6 -0 8 5 -4 5 10 8 11 12 14 13 13 6 -1 4 -7 -13 -18 -20 -20 -20 -20 -20 -20 -20 -20 -20 -20 -20 -20 -20 -20 -20 -20 -20 -20 -20 -20
-15 -18 -16 -14 -15 -3 8 9 2 -3 1 5 8 9 10 8 7 4 -9 -20 -20 -20 -20 -20 -20 -20 -20 -20 -20 -20 -20 -20 -20 -20 -20 -20 -20 -20 -20 -20 -20 -20 -20 -20
9 9 8 13 14 15 14 13 11 11 11 9 9 9 8 6 3 -10 -20 -20 -20 -20 -20 -20 -20 -20 -20 -20 -20 -20 -20 -20 -20 -20 -20 -20 -20 -20 -20 -20 -20 -20 -20 -20
11 12 14 12 7 -6 -19 -20 -19 -19 -20 -20 -20 -20 -20 -20 -20 -20 -20 -20 -20 -20 -20 -20 -20 -20 -20 -20 -20 -20 -20 -20 -20 -20 -20 -20 -20 -20 -20 -20 -20 -20 -20 -20
-11 -16 -20 -20 -20 -20 -20 -20 -20 -20 -20 -20 -20 -20 -20 -20 -20 -20 -20 -20 -20 -20 -20 -20 -20 -20 -20 -20 -20 -20 -20 -20 -20 -20 -20 -20 -20 -20 -20 -20 -20 -20 -20 -20
-20 -20 -20 -20 -20 -20 -20 -20 -20 -20 -20 -20 -20 -20 -20 -20 -20 -20 -20 -20 -20 -20 -20 -20 -20 -20 -20 -20 -20 -20 -20 -20 -20 -20 -20 -20 -20 -20 -20 -20 -20 -20 -20 -20
-20 -20 -20 -20 -20 -20 -20 -20 -20 -20 -20 -20 -20 -20 -20 -20 -20 -20 -20 -20 -20 -20 -20 -20 -20 -20 -20 -20 -20 -20 -20 -20 -20 -20 -20 -20 -20 -20 -20 -20 -20 -20 -20 -20

GFSNGP_prec_radar_051.txt.gz
Reflectivity
-20 -20 -20 -20 -20 -20 -20 -20 -20 -20 -20 -20 -20 -20 -20 -20 -20 -20 -20 -20 -20 -20 -20 -20 -20 -20 -20 -20 -20 -20 -20 -20 -20 -20 -20 -20 -20 -20 -20 -20 -20 -20 -20 -8
-20 -20 -20 -20 -20 -20 -20 -20 -20 -20 -20 -20 -20 -20 -20 -20 -20 -20 -20 -20 -20 -20 -20 -20 -20 -20 -20 -20 -20 -20 -20 -20 -20 -20 -20 -20 -20 -20 -20 -20 -20 -20 9 -20
-20 -20 -20 -20 -20 -20 -20 -20 -20 -20 -20 -20 -20 -20 -20 -20 -20 -20 -20 -20 -20 -20 -20 -20 -20 -20 -20 -20 -20 -20 -20 -20 -20 -20 -20 -20 -20 -20 -20 -20 -18 4 3 -20
-20 -20 -20 -20 -20 -20 -20 -20 -20 -20 -20 -20 -20 -20 -20 -20 -20 -20 -20 -20 -20 -20 -20 -20 -20 -20 -20 -20 -20 -20 -20 -20 -20 -20 -20 -20 -20 -20 -10 1 -10 -3 -16 -12
-2 -20 -20 -20 -20 -20 -20 -20 -20 -20 -20 -20 -20 -20 -20 -20 -20 -20 -20 -20 -19 -4 -20 -20 -20 -20 -20 -20 -20 -20 -20 -20 -20 -20 -20 -20 -20 -20 -20 -20 -20 -10 12 14
-13 -20 -20 -20 -20 -20 -20 -20 -20 -20 -20 -20 -20 -20 -20 -20 -20 -20 -20 -20 -20 -20 -20 -20 -20 -20 -20 -20 -20 -20 -20 -20 -20 -20 -20 -20 -20 -19 -20 -18 3 4 6 20
14 -20 -20 -20 -20 -20 -20 -20 -20 -20 -20 -20 -20 -20 -20 -20 -20 -20 -20 -20 -20 -20 -20 -20 -20 -20 -20 -20 -20 -20 -20 -20 -20 -20 -20 -20 -19 -0 -2 -4 5 7 18 21
8 2 -20 -20 -20 -20 -20 -20 -20 -20 -20 -20 -20 -20 -20 -20 -20 -20 -20 -20 -20 -20 -20 -20 -20 -0 -20 -19 -20 -20 -20 -20 -20 8 29 22 -20 -20 -20 -20 -6 14 6 3
-20 -20 -20 -20 -20 -20 -20 -20 -20 -20 -20 -20 -20 -20 -20 0 -20 -20 -20 -20 -20 -20 -20 -20 -20 -20 -20 -2 -12 -17 -20 -20 -9 28 22 -20 -15 -20 -17 -8 12 20 18 21
-20 -20 -20 -20 -20 -20 -20 -20 -20 -20 -20 -20 -20 -20 -20 24 -20 -20 11 -20 -20 -20 -20 -20 -20 -20 -20 -20 2 12 -12 -14 -13 -19 -5 12 11 0 10 17 17 18 22 18
-20 -20 -20 -20 -20 -20 -20 -20 -20 -20 -20 -20 -20 -13 14 34 -10 9 11 13 -20 -11 -20 -20 -20 -20 -20 -2 -0 -9 -20 -20 -20 -16 1 -19 -13 2 6 14 18 10 -15 -20
-20 -20 -20 -20 -20 -20 -20 -20 -20 -20 -20 -20 1 29 19 27 32 21 30 -0 -20 -20 -20 -8 23 20 8 1 14 9 -20 -20 -15 7 -1 -18 -19 -13 5 -3 -18 -20 -10 -10
-20 -20 -20 -20 -20 -20 -20 -20 -20 -20 -20 -20 13 -8 -4 13 25 24 21 28 27 -10 -1 -15 -20 -20 13 11 -0 -19 -19 -4 6 -10 -20 -20 -20 -20 -16 13 14 15 11 5
-20 -20 -20 -20 -20 -20 -14 -12 -20 -20 -20 -20 -3 -11 -2 10 27 31 22 21 29 21 -20 2 18 20 17 30 27 19 11 27 36 25 19 20 18 12 13 15 10 3 3 1
-20 -20 -10 3 -0 -18 -19 -20 -20 -20 -15 -20 -10 10 -19 -8 23 4 20 8 -17 -5 1 12 18 16 26 33 34 32 35 28 28 27 25 20 12 6 6 3 -9 -8 -1 -2
-20 -19 -10 -14 7 -15 -20 -20 -20 -20 -19 5 -11 -11 6 -16 10 15 -13 -13 -18 2 -8 12 20 21 17 18 24 26 25 21 21 16 11 12 14 13 12 7 1 -4 -17 -20
-20 -20 -20 -20 -20 0 8 -1 -20 -20 -20 -11 -17 -17 -11 -18 -14 -3 8 17 18 18 20 23 23 21 22 18 6 13 16 9 9 8 7 5 9 9 6 1 -3 -20 -20 -12
-19 -16 -13 -13 -9 12 -0 -9 -1 9 3 8 5 -9 8 18 27 28 25 20 -17 -10 2 9 -1 -5 5 8 6 -3 -16 -9 -1 3 1 -8 -19 -20 -20 -20 -20 -20 -20 -20
-14 -17 -14 -16 -3 5 7 0 11 3 -12 1 6 2 -2 -1 2 7 13 5 -10 -20 9 8 1 -17 -20 -20 -20 -20 -20 -20 -20 -20 -20 -20 -20 -20 -20 -20 -20 -20 -20 -20
3 10 12 15 12 6 4 8 7 -18 -9 -5 1 5 1 -2 2 -8 -9 -8 0 6 5 6 3 -11 -20 -20 -20 -20 -20 -20 -20 -20 -20 -20 -20 -20 -20 -20 -20 -20 -20 -20
11 11 5 -7 -4 6 8 11 9 0 0 8 11 12 12 12 7 -2 -11 -6 8 7 6 1 -16 -20 -20 -20 -20 -20 -20 -20 -20 -20 -20 -20 -20 -20 -20 -20 -20 -20 -20 -2
6 3 3 6 5 9 13 14 11 6 6 8 7 8 10 6 1 4 5 6 2 -10 -20 -20 -20 -20 -20 -20 -20 -20 -20 -20 -20 -20 -20 -20 -20 -20 -20 -20 -20 -20 -20 -20
4 9 14 15 14 12 11 6 5 2 -1 0 1 -1 -6 -14 -14 -16 -18 -20 -20 -20 -20 -20 -20 -20 -20 -20 -20 -20 -20 -20 -20 -20 -20 -20 -20 -20 -20 -20 -20 -20 -20 -20
12 6 -4 -13 -15 -20 -20 -20 -20 -20 -20 -20 -20 -20 -20 -20 -20 -20 -20 -20 -20 -20 -20 -20 -20 -20 -20 -20 -20 -20 -20 -20 -20 -20 -20 -20 -20 -20 -20 -20 -20 -20 -20 -20
-14 -20 -20 -20 -20 -20 -20 -20 -20 -20 -20 -20 -20 -20 -20 -20 -20 -20 -20 -20 -20 -20 -20 -20 -20 -20 -20 -20 -20 -20 -20 -20 -20 -20 -20 -20 -20 -20 -20 -20 -20 -20 -20 -20
-20 -20 -20 -20 -20 -20 -20 -20 -20 -20 -20 -20 -20 -20 -20 -20 -20 -20 -20 -20 -20 -20 -20 -20 -20 -20 -20 -20 -20 -20 -20 -20 -20 -20 -20 -20 -20 -20 -20 -20 -20 -20 -20 -20
-20 -20 -20 -20 -20 -20 -20 -20 -20 -20 -20 -20 -20 -20 -20 -20 -20 -20 -20 -20 -20 -20 -20 -20 -20 -20 -20 -20 -20 -20 -20 -20 -20 -20 -20 -20 -20 -20 -20 -20 -20 -20 -20 -20

GFSNGP_prec_radar_054.txt.gz
Reflectivity
-20 -20 -20 -20 -20 -20 -20 -20 -20 -20 -20 -20 -20 -20 -20 -20 -20 -20 -20 -20 -20 -20 -20 -20 -20 -20 -20 -20 -20 -20 -20 -20 -20 -20 -20 -20 -20 16 -20 -20 -20 -20 -20 -20
-20 -20 -20 -20 -20 -20 -20 -20 -20 -20 -20 -20 -20 -20 -20 -20 -20 -20 -20 -20 -20 -20 -20 -20 -20 -20 -20 -20 -20 -20 -20 -20 -20 -20 -20 -20 -20 -20 -20 -20 -20 -20 -20 -20
-20 -20 -20 -20 -20 -20 -20 -20 -20 -20 -20 -20 -20 -20 -20 -20 -20 -20 -20 -20 -20 -20 -20 -20 -20 -20 -20 -20 -20 -20 -20 -20 -20 -20 -20 -20 -20 -20 -20 -20 -20 -20 -20 -20
-20 -20 -20 -20 -20 -20 -20 -20 -20 -20 -20 -20 -20 -20 -20 -20 -20 -20 -20 -20 -20 -20 -20 -20 -20 -20 -20 -20 -20 -20 -20 -20 -20 -20 -20 -20 -20 -20 -20 -20 -20 -20 -18 -8
5 -3 -20 -20 -20 -20 -20 -20 -20 -20 -20 -20 -20 -20 -20 -20 -20 -20 -20 -20 -20 -20 -20 -20 -20 -17 -20 -20 -20 -20 -20 -20 -20 -20 -20 -20 -20 -20 -20 -20 -20 -20 -20 -20
10 -18 -20 -20 -20 -20 -20 -20 -20 -20 -20 -20 -20 -20 -20 -20 -20 -20 -20 -20 -20 -20 -20 -20 -20 -20 -20 -20 -20 -20 -20 -20 -20 -20 -20 -20 -20 -20 -20 -20 -20 -20 -19 -9
1 14 -2 -20 -20 -20 -20 -20 -20 -20 -20 -20 -20 -20 -20 -20 -20 -20 -20 -20 -20 -20 -20 -20 -20 -20 -20 -18 -20 -20 -20 -20 -20 -20 -19 -20 -20 -20 -20 -16 -20 -11 -6 9
4 8 2 -20 -20 -17 6 -20 -20 -20 -20 -20 -20 -20 -20 -20 -20 -20 -20 -20 -20 -20 -20 -20 -20 -20 -20 -20 -20 -20 -9 -19 -20 -20 -20 -20 -20 -20 -11 19 10 -8 -8 -14
-20 -7 -20 -20 -16 -20 -20 -20 -20 -20 -20 -20 -20 -20 -20 -20 -20 -20 -20 -20 -20 -20 -20 -20 -20 -20 -20 -20 -20 -20 -20 -20 -20 -20 -20 -20 -19 26 -12 9 16 -18 -7 -1
7 -20 -20 -20 -20 -20 -20 -20 -20 -20 -20 -20 -20 -20 -20 -20 -20 -20 -20 -15 -3 -20 -20 -20 -20 -20 -11 -18 -11 -16 -20 -20 -20 -15 -4 21 20 15 -11 -18 -11 7 11 2
-20 -20 -20 -20 -20 -20 -20 -20 -20 -20 -20 -20 -20 -20 -20 -20 -20 -20 -18 4 -4 -19 -7 20 15 11 -7 3 15 17 14 14 14 23 8 13 11 1 -4 1 18 10 11 5
3 -20 -20 -20 -20 -20 -20 -20 -20 -20 -20 -20 -20 -20 -20 -20 -20 -20 -8 39 32 15 21 13 18 26 25 24 21 23 27 25 19 5 -1 -10 -19 -0 14 21 26 26 17 9
-20 -20 -20 -20 -20 -20 -20 -20 -20 -20 -20 -20 -20 -20 -20 -20 -20 -20 -20 10 37 31 29 37 21 4 -4 20 21 23 23 21 12 11 -4 14 25 30 25 16 9 4 8 10
-20 -20 -16 -19 -18 -20 -20 -20 -16 -20 -20 -20 -20 -20 -20 -20 -20 -20 7 10 22 23 29 36 34 32 15 23 26 33 35 31 23 25 25 24 22 25 26 26 22 17 17 15
-20 -20 -20 -15 -20 -20 -20 -19 -20 -20 -20 -20 -20 -20 -8 20 -19 -19 -5 6 10 22 24 28 27 32 27 29 26 29 32 32 27 28 28 27 26 25 23 18 12 13 13 15
-20 -20 -18 -20 -20 -20 -19 -16 -16 -20 -20 -10 -20 -20 -16 -10 -16 -14 -2 9 10 1 7 12 9 17 14 13 15 18 18 21 22 23 23 22 21 20 17 15 15 12 10 9
-20 -20 -20 -19 -20 -20 -20 -18 -18 -14 -13 -15 -8 -5 -14 -16 -16 -16 4 19 25 24 18 22 24 22 12 10 5 13 17 18 20 19 15 9 2 -3 -1 -17 -20 -4 1 -4
-6 -2 -3 -8 -4 -20 -16 -1 2 -6 2 -1 -12 -10 -11 -14 -9 4 12 15 18 21 21 19 15 7 -14 -20 -20 -18 -13 -2 2 0 -6 -15 -9 -5 -4 -4 -3 -1 -2 -20
-4 -2 -0 -3 -1 -3 -3 -3 5 10 7 -3 -10 -0 0 -4 -11 -12 -1 2 4 3 8 8 5 -5 -20 -20 -20 -20 -20 -14 -20 -12 -12 -3 -2 -1 1 0 0 1 -2 -2
-3 4 10 2 -4 -7 -2 7 5 -4 1 5 6 7 -4 -6 -5 -14 -7 -16 -3 1 -4 -16 -20 -20 -20 -20 -20 -20 -20 -20 -20 -20 -20 -19 -3 -1 -20 -19 -17 -0 2 1
-3 -18 -19 -8 4 8 6 7 -0 -15 -2 4 6 4 -9 -19 -20 -15 -20 -20 -20 -20 -20 -20 -20 -20 -20 -20 -20 -20 -20 -20 -20 -20 -20 -20 -20 -20 -17 -4 -3 -1 1 1
8 6 2 2 -3 -16 -3 6 6 3 3 2 4 3 4 -4 -18 -20 -20 -20 -20 -20 -20 -20 -20 -20 -20 -20 -20 -20 -20 -20 -20 -20 -20 -20 -20 -20 -20 -15 -4 -1 0 1
2 3 5 1 -6 -16 -12 -13 -9 -9 -20 -20 -20 -20 -20 -20 -20 -20 -20 -20 -20 -20 -20 -20 -20 -20 -20 -20 -20 -20 -20 -20 -20 -20 -20 -20 -10 -5 -4 -4 -1 -2 -2 -4
-20 -20 -19 -3 -7 -20 -20 -4 -20 -20 -20 -20 -20 -20 -20 -20 -20 -20 -20 -20 -20 -20 -20 -20 -20 -20 -20 -20 -20 -20 -6 -6 -4 -6 -9 -19 -2 -3 -4 -5 -19 -1 -4 -6
-20 -20 -20 -20 -20 -20 -20 -20 -20 -20 -20 -20 -20 -20 -20 -18 -5 -1 -3 -20 -20 -20 -20 -20 -20 -20 -4 -4 -14 -20 -16 -20 -20 -2 -2 -3 -2 -3 -1 -2 -17 -7 -20 -12
-20 -20 -20 -20 -20 -20 -20 -20 -20 -5 -20 -1 1 3 3 -1 -11 -12 -20 -20 -20 -20 -20 -20 -20 -6 -3 -5 -4 -6 -3 -6 -2 -10 -4 -3 -4 -4 -20 -20 -20 -20 -20 -20
-20 -20 -20 -20 -20 -20 -20 -20 -20 -4 -5 0 0 2 1 1 -7 -13 -20 -8 -14 -20 -9 -4 -2 -13 -15 -3 -2 -2 -2 -2 -20 -16 -4 -4 -12 -4 -20 -20 -20 -20 -20 -20

GFSNGP_prec_radar_057.txt.gz
Reflectivity
-2 -8 -10 13 -4 -6 -3 -5 16 -3 12 -20 -20 -18 -20 -20 -20 -18 -20 -20 -20 -20 -20 -20 -20 -20 -20 -20 -20 -20 -20 -20 -20 -20 -20 -20 -20 -20 -20 -20 -20 -20 -20 -20
-6 -20 -20 -17 -9 -20 -20 -20 -20 -20 -20 -20 -20 -20 -20 -20 -20 -20 -20 -20 -20 -20 -20 -20 -20 -20 -20 -20 -20 -20 -20 -20 -20 -20 -20 -20 -20 -20 -20 -20 -20 -20 -20 -20
2 -20 -20 -20 -20 -20 -3 -18 -20 -20 -20 -20 -20 -20 -20 -20 -20 -20 -20 -4 -16 -20 -20 -20 -20 -20 -20 -20 -20 -20 -20 -20 -20 -20 -20 -20 -20 -20 -20 -20 -20 -20 -20 -20
19 -2 9 -3 -20 -20 -20 -20 -20 -20 -20 -20 -20 -20 -20 -20 -20 -20 -20 -20 -20 -20 -20 -20 -20 -20 -20 -20 -20 -20 -20 -20 -20 -20 -20 -20 -20 -20 -20 -20 -20 -20 -20 -20
-20 -18 -20 -18 -20 -20 -20 -20 -20 -20 -20 -20 -20 -20 -20 -20 -20 -20 -20 -20 -20 -20 -20 -20 -20 -20 -20 -20 -20 -20 -20 -20 -20 -20 -20 -20 -20 -20 -20 -20 -20 -20 -20 -2
20 -3 -11 -20 -20 -20 -20 -20 -20 -20 -20 -20 -20 -20 -20 -20 -20 -20 -20 -20 -20 -20 -20 -20 -20 -20 -20 -20 -20 -20 -20 -20 -20 -20 -20 -20 -20 -20 -20 -20 -20 -20 -20 -20
1 7 -20 -20 -20 -20 -20 23 -20 -20 -20 -20 -20 -20 -14 -20 -20 -20 -20 -20 -20 -20 -20 -20 -20 -20 -20 -20 -20 -20 -20 -20 -20 -20 -20 -20 -20 -20 -20 -20 -20 -20 -20 -20
6 18 12 -20 -20 -14 -20 -20 -20 -20 -20 -20 -20 -20 -20 -20 -20 -20 -20 -20 -20 -20 -20 -20 -20 -20 -20 -20 -20 -20 -20 -20 -20 -20 -20 -20 -20 -20 15 17 -9 -6 15 12
-17 -18 -20 -20 -20 -20 -20 -20 -20 -20 -20 -20 -20 -20 -20 -20 -20 -20 -20 -20 -20 -20 -20 -20 -20 -19 -18 -19 -20 -20 -20 -20 -20 -20 -20 -20 -20 -20 -20 -20 -20 12 15 5
23 -18 27 -15 -7 -20 -20 -20 -20 -20 -20 -20 -20 -20 -20 -20 -20 -20 -20 -20 -20 -20 -20 -20 -20 -15 -0 -2 -2 12 -20 -10 -0 4 1 -4 -15 -6 -2 12 21 20 19 30
-20 -6 5 -18 -4 -20 -20 -20 -20 -20 -20 -20 -20 -20 -20 -20 -20 -20 -20 -20 -20 -20 -20 -20 -20 0 15 8 6 23 21 14 10 11 11 17 14 21 23 21 26 24 25 14
15 7 -13 5 -8 -20 -20 -20 -20 -20 -20 -20 -20 -20 -20 -20 -20 -20 -20 -9 -20 -20 -20 2 10 16 8 19 25 30 24 25 23 18 26 26 19 12 23 26 21 28 27 23
-19 -20 -20 -20 -20 -20 -20 -20 -20 -20 -20 -20 -20 -20 -20 -20 -20 -10 -20 -20 -20 -20 -12 7 25 23 27 30 27 33 28 29 16 24 31 27 25 22 19 22 20 20 21 24
-20 -20 -20 -20 -20 -20 -20 -20 -20 -20 -20 -20 -20 -20 -20 -20 -20 -20 -7 -20 -20 -16 2 4 8 22 25 40 37 33 31 23 23 23 22 34 37 24 24 24 24 27 27 26
-20 -20 -20 -20 -20 -20 -20 -20 -20 -20 -20 -20 -20 -20 -19 -19 -20 -15 -12 -13 -15 -15 4 12 11 23 25 27 32 34 32 29 28 28 30 36 35 28 26 25 25 24 21 17
-20 -20 -20 -20 -20 -20 -20 -20 -20 -20 -20 -20 -20 -16 -13 -14 -15 -10 -7 -13 -19 -20 -4 1 8 15 9 15 20 24 26 27 26 25 26 25 22 18 17 17 9 10 10 11
-20 -20 -20 -20 -20 -20 -20 -20 -20 -20 -19 -20 -0 2 -2 -15 -16 -15 -4 3 -15 -5 10 15 16 7 14 17 16 18 22 22 18 13 8 5 5 1 -2 -3 1 2 4 2
-1 -5 -8 -10 0 -10 -15 -5 -5 -16 -6 -1 -5 -18 -19 -15 -9 -1 7 8 4 -1 4 11 8 3 6 5 5 9 12 12 12 9 3 -2 0 -1 -1 -0 -0 -2 -9 -10
-20 -3 -3 2 -11 -3 -1 0 2 -2 -2 -3 1 14 14 11 5 6 12 9 1 -12 -3 -19 -14 -9 -4 3 2 -11 -6 -5 -5 -3 -5 -15 -11 -2 -4 -4 -3 -7 -20 -11
-4 -5 -4 -3 -1 2 3 -1 -2 -6 -0 1 0 -4 5 6 3 -0 -5 -10 -7 -19 -20 -20 -20 -20 -20 -20 -20 -20 -20 -20 -20 -20 -20 -19 -5 -5 -20 -20 -18 -2 -0 -1
-2 -2 -3 -4 -3 -9 -18 -18 -19 -20 -20 -20 -12 -3 -1 -7 -5 -11 -20 -20 -20 -20 -20 -20 -20 -20 -20 -20 -20 -20 -20 -20 -20 -5 -4 -2 -2 -3 -2 -2 -0 1 2 1
-3 -20 -20 -20 -20 -20 -14 -7 -20 -19 -5 -0 -5 -12 -20 -20 -20 -20 -20 -20 -20 -20 -20 -20 -20 -20 -20 -20 -20 -20 -20 -20 -6 -3 -2 -1 -0 -0 0 -0 0 2 2 2
-4 -10 -9 -20 -20 -8 -18 -20 -5 -20 -20 -20 -20 -20 -20 -20 -20 -20 -20 -20 -20 -20 -20 -20 -20 -20 -20 -2 -2 -2 -10 -8 -4 -2 -1 -1 0 -1 -2 -4 -0 0 1 -2
-1 -0 0 1 3 -11 -7 -4 -20 -20 -20 -20 -20 -20 -20 -4 -20 -20 -20 -20 -20 -20 -20 -20 -20 -20 -20 -0 -3 -4 -2 0 -0 0 -1 -5 1 -0 -0 -2 -2 1 1 -2
-1 0 -6 -20 -20 -20 -20 -20 -20 -20 -20 -20 -20 -20 -20 -20 -7 -6 -5 -20 -20 -18 -2 -20 -20 -20 -3 -2 -4 -2 -1 -4 -20 1 -0 -1 1 -0 1 -1 -1 -3 -4 -1
-20 -20 -20 -20 -20 -20 -20 -20 -20 -20 -20 -3 -1 3 3 1 -1 -0 -2 -20 -20 -20 -3 -2 -13 -1 0 -3 -1 -3 -0 -1 -1 -2 -1 1 -1 -0 -1 -4 -3 -1 -1 -2
-20 -20 -20 -20 -20 -20 -20 -20 -4 -2 -4 1 -0 1 0 3 -1 -8 -15 -0 -1 -2 0 -0 -0 -13 -17 -16 -0 -1 -1 -0 -20 -20 -2 -1 -1 -0 -1 -3 -2 -2 -2 -3

GFSNGP_prec_radar_063.txt.gz
Reflectivity
-20 -20 -10 29 18 8 21 -4 13 5 26 12 28 1 13 17 16 -20 -20 -20 -20 -20 -20 -20 -20 3 -20 -9 -11 26 -18 -20 -20 -20 -20 -20 -20 -20 -5 -15 -20 -20 -20 -20
-20 -3 4 11 13 15 22 4 9 14 26 38 24 32 14 -1 -20 -20 -20 -20 -20 -14 -20 -20 -20 -20 -20 -20 -20 -20 -17 26 30 -20 -20 -20 -20 -20 -20 -20 -20 -20 -20 -20
-19 -20 -20 -20 -19 -1 -8 7 15 34 25 15 26 31 24 -11 -20 -20 -20 -20 -20 -20 -20 -20 -20 -20 -20 -20 -20 -20 -20 -17 -6 -20 -20 -20 -20 -20 -20 -20 -20 -20 -20 -20
-20 -20 -16 -20 -20 -20 -5 32 28 27 17 26 22 18 8 -20 -20 -20 -20 -20 -20 -20 -20 -20 -20 -20 -20 -20 -20 -20 -20 -20 -20 -20 -20 -20 -20 -20 -20 -20 -20 -20 -20 -20
-20 3 -11 -20 -2 -20 -3 16 24 16 5 -9 24 -12 -20 -20 -20 -20 -20 -20 -20 -20 -20 -20 -20 -20 -20 -20 -20 -20 -20 -20 -20 -20 -20 -20 -20 10 -20 -20 -20 -20 -20 -12
12 -18 7 -20 -14 -20 -20 -16 -13 -20 -15 -7 -20 -20 -20 -20 -20 -20 -20 -19 -18 -20 -20 -20 -20 -20 -20 -20 -20 -20 -20 -20 -20 -20 -20 -20 -20 -20 17 -20 -20 22 -20 -20
-20 0 -11 -8 6 13 8 -19 -20 -20 -20 -20 -20 -10 -5 -9 -20 -20 -19 -16 -12 -19 -20 -20 -20 -20 -20 -20 -20 -20 -20 -20 -20 -20 -20 -20 -20 -20 -20 -20 -20 -3 -19 8
5 7 -20 10 7 6 -16 -20 -20 -20 -20 -20 -20 -20 -20 -20 -20 -20 -20 -20 -20 -20 -20 -20 -20 -20 -20 -20 -20 -20 -20 -20 -20 -20 -20 -20 -20 -20 -20 -20 -15 -20 24 8
-20 -20 -15 22 -8 -20 -20 -20 -20 -20 -20 -20 -20 -20 -20 -20 -20 -20 -20 -20 -20 -20 -20 -20 -20 -20 -20 -20 -20 -20 -20 -20 -20 -20 -20 -20 -17 -20 -20 20 13 -20 -6 11
20 -7 -20 -6 17 6 -20 -20 7 -20 -19 -6 -3 2 -5 -20 -20 -20 -20 -20 -20 -20 -20 -20 -20 -20 -20 -20 -20 -20 -20 -20 -20 -20 -20 -20 -15 -4 5 -2 -14 21 25 -12
18 29 11 3 35 18 27 2 -20 -7 -16 -10 -20 -20 -20 -20 -20 -20 -20 -20 -20 -20 -20 -20 -20 -20 -20 -14 -20 -20 -20 -20 -20 -18 -15 -9 5 8 7 16 20 22 26 25
30 26 24 24 24 22 33 27 -8 -20 -20 -20 -20 -20 -20 -20 -20 -20 -20 -20 -20 -20 -20 -20 -20 -20 -20 -18 -7 -2 -20 -20 -20 -18 -16 -2 3 13 20 17 18 19 22 21
40 40 33 30 33 34 18 14 -20 -20 -20 -20 -20 -20 -20 -20 -20 -20 -20 -20 -20 -20 -20 -20 -20 -19 -16 -17 -20 -17 -20 -20 -20 -20 -20 -6 16 20 17 20 22 15 19 24
31 25 -2 -13 4 6 -6 -20 -20 -20 -20 -20 -20 -20 -20 -20 -20 -13 -4 -10 -15 -19 -20 -20 -20 -18 -14 -18 -20 -20 -20 -20 -19 -13 -11 -0 12 18 23 23 22 24 22 23
-20 -9 -15 -20 -20 -20 -20 -20 -20 -20 -20 -20 -20 -20 -20 -20 -20 -20 -20 -20 -17 -20 -20 -20 -20 -18 -19 -20 -20 -20 -20 -17 -3 10 8 6 11 15 17 19 19 21 24 27
-20 -20 -20 -20 -20 -20 -20 -20 -20 -19 -20 -20 -20 -5 -20 -20 -20 -20 -20 -20 -20 -20 -20 -20 -20 -15 -20 -20 -20 -20 -19 -1 7 11 16 15 12 13 15 16 14 12 14 18
-20 -20 -20 -19 -20 -20 -19 -20 -20 -20 -20 -20 -16 -7 -20 -20 -19 -19 -18 -20 -20 -20 -20 -20 -19 -20 -20 -20 -20 -20 -13 -6 -4 5 9 8 2 -4 -4 1 9 12 10 9
-20 -17 -20 -19 -20 -20 -15 -20 -20 -20 -20 -20 -20 -20 -20 -20 -20 -20 -20 -20 -20 -20 -20 -20 -20 -20 -20 -15 -10 -14 -20 -20 -20 -20 -20 -12 -12 -11 -9 -8 -18 -20 -19 -9
-20 -20 -20 -20 -20 -20 -20 -12 -19 -17 -20 -20 -20 -20 -20 -20 -20 -20 -20 -20 -20 -20 -20 -20 -20 -20 -20 -20 -20 -20 -20 -20 -20 -20 -20 -20 -20 -20 -20 -20 -20 -20 -20 -20
-20 -20 -20 -20 -20 -20 -20 -20 -20 -20 -20 -20 -20 -20 -20 -20 -20 -20 -20 -20 -20 -20 -20 -20 -20 -20 -20 -20 -20 -20 -20 -20 -20 -20 -20 -20 -20 -20 -20 -20 -20 -20 -20 -20
-20 -20 -20 -20 -20 -20 -20 -20 -20 -20 -20 -20 -20 -20 -20 -20 -20 -20 -20 -20 -20 -20 -20 -20 -20 -20 -20 -20 -20 -20 -20 -20 -20 -20 -20 -20 -20 -20 -20 -20 -20 -20 -20 -20
-20 -20 -20 -20 -20 -20 -20 -20 -20 -20 -20 -20 -20 -20 -20 -20 -20 -20 -20 -20 -20 -20 -20 -20 -20 -20 -20 -20 -20 -20 -20 -20 -20 -20 -20 -20 -20 -20 -20 -20 -20 -20 -20 -20
-20 -20 -20 -20 -20 -20 -20 -20 -20 -20 -20 -20 -20 -20 -20 -20 -20 -20 -20 -20 -20 -20 -20 -20 -20 -20 -20 -20 -20 -20 -20 -20 -20 -20 -20 -20 -20 -20 -20 -20 -20 -20 -20 -20
-20 -20 -20 -20 -20 -20 -20 -20 -20 -20 -20 -20 -20 -20 -18 -20 -20 -20 -20 -20 -20 -20 -20 -20 -20 -20 -20 -20 -20 -20 -20 -20 -20 -20 -20 -20 -20 -20 -20 -20 -20 -20 -20 -20
-20 -16 -17 -20 -20 -20 -20 -20 -20 -20 -20 -20 -20 -20 -20 -20 -20 -20 -20 -20 -20 -20 -20 -20 -20 -20 -20 -20 -20 -20 -20 -20 -20 -20 -20 -20 -20 -20 -20 -20 -20 -20 -20 -20
-20 -20 -20 -20 -20 -20 -20 -20 -20 -20 -20 -20 -20 -20 -20 -20 -20 -20 -20 -20 -20 -20 -20 -20 -20 -20 -20 -20 -20 -20 -20 -20 -20 -20 -20 -20 -20 -20 -20 -20 -20 -20 -20 -20
-20 -20 -20 -20 -20 -20 -20 -20 -20 -20 -20 -20 -20 -20 -20 -20 -20 -17 -20 -20 -20 -20 -20 -20 -20 -20 -20 -20 -20 -20 -20 -20 -20 -20 -20 -20 -20 -20 -20 -20 -20 -20 -20 -20

GFSNGP_prec_radar_066.txt.gz
Reflectivity
-20 -20 -20 -20 24 16 -3 -3 4 -20 -12 18 38 37 24 -8 -20 10 20 1 -20 -20 -20 -20 -20 -20 -9 -20 -20 -18 -19 -19 -13 21 -20 -20 7 -11 -20 -20 -20 -20 -8 3
-20 -20 -20 -20 11 9 31 18 15 -20 -20 9 32 37 34 22 12 -9 12 -20 4 12 -20 -20 -20 -20 -20 -20 -20 -20 -20 -20 -20 -20 26 -20 -15 26 -20 -20 -20 -20 -20 -9
-20 -20 -20 -20 -20 7 17 26 18 17 1 27 25 33 8 20 25 29 24 17 23 14 -3 1 -17 -20 -20 -20 -20 -20 -20 -20 -20 -20 -20 -20 -13 13 -17 -7 -17 -20 -20 27
-20 -20 -20 -20 -20 -19 -1 19 -2 5 33 33 23 28 34 -6 -6 20 18 9 17 13 -10 -13 -20 -2 -20 -20 -20 -20 -20 -20 -20 -20 -20 -20 -20 1 13 -8 -0 -0 -20 -20
-20 -20 -20 -20 16 -2 14 -14 -20 29 29 25 26 21 13 17 -8 -11 4 5 11 10 9 2 -20 -20 -20 -20 -20 -20 -20 -20 -20 -20 -20 -20 -20 -20 -20 -15 20 8 -20 20
-18 -20 -18 -20 0 9 -20 0 -15 3 16 -20 -20 -20 -20 -19 -8 5 1 8 -7 -20 -20 -20 -20 -20 -20 -20 -20 -20 -20 -20 -20 -20 -20 -20 -20 -20 -20 -20 -20 -17 12 -13
-20 -18 -20 -20 -20 4 2 29 16 -6 13 1 -20 -20 -20 -13 11 8 7 -4 -18 -20 -20 -20 -20 -20 -20 -20 -20 -20 -20 -20 -20 -20 -20 -20 -20 -20 -20 -20 -20 -20 -20 -20
-7 3 5 -20 -20 -10 27 21 29 17 4 15 -11 -20 -18 -9 -20 -20 -20 -20 -20 -20 -20 -20 -20 -20 -20 -20 -20 -20 -20 -20 -20 -20 -20 -20 -20 -20 -20 -20 -20 -20 -20 4
-20 -20 4 -20 -20 -20 5 28 16 34 24 20 14 1 -20 -20 -20 -20 -20 -20 -20 -20 -20 -20 -20 -20 -4 -9 -20 -20 -20 -20 -20 -20 -20 -20 -20 -20 -20 -1 11 8 13 10
15 -14 -17 -20 21 -20 -20 -3 -17 -2 -19 -20 -20 -20 -20 -20 -20 -20 -20 -20 -20 -20 -20 -20 -20 -20 -20 -18 -20 -20 -20 -20 -20 -20 -20 -20 -20 -20 -20 -20 1 4 11 4
31 4 -3 3 13 11 -6 4 -2 -20 -20 -20 -20 -20 -20 -20 -20 -20 -20 -20 -20 -20 -20 -20 -20 -20 -20 -19 -20 -20 -20 -20 -20 -20 -20 -20 -18 4 0 8 -3 1 8 12
19 28 36 27 6 16 35 19 -14 -20 -20 -20 -20 -18 -20 -20 -20 -20 -20 -20 -20 -20 -20 -20 -20 -20 -20 -20 -20 -20 -20 -20 -20 -20 -20 -20 -20 -20 -17 3 7 9 13 12
37 31 35 39 27 5 -10 19 19 9 -8 -20 -20 -20 -20 -20 -20 -20 -20 -20 -20 -20 -20 -20 -20 -20 -20 -20 -20 -20 -20 -20 -20 -20 -20 -20 -20 -20 -20 -9 -8 3 14 18
24 30 14 13 16 13 12 -12 -18 14 -17 -20 -20 -20 -20 -20 -20 -20 -20 -20 -20 -20 -20 -20 -20 -20 -20 -20 -20 -20 -20 -20 -20 -20 -20 -20 -20 -20 -19 -3 5 7 14 20
-20 -20 -20 -10 -12 1 -8 -20 -20 -20 -20 -20 -20 -20 -20 -20 -20 -20 -20 -20 -20 -20 -20 -20 -20 -20 -20 -20 -20 -20 -20 -20 -20 -20 -20 -20 -16 -2 3 5 9 6 8 12
-20 -20 -20 -20 -20 -20 -20 -20 -20 -20 -20 -20 -20 -20 -20 -20 -20 -20 -20 -20 -20 -20 -20 -20 -20 -19 -20 -20 -20 -20 -20 -20 -20 -20 -20 -20 -20 -15 1 6 6 7 7 9
-20 -20 -20 -20 -20 -20 -20 -20 -20 -20 -20 -20 -20 -20 -20 -20 -20 -20 -20 -20 -20 -20 -20 -20 -20 -20 -20 -20 -20 -20 -20 -20 -20 -20 -20 -20 -20 -20 -20 -20 -20 -20 -16 -6
-20 -20 -20 -20 -20 -20 -20 -20 -20 -20 -20 -20 -20 -20 -20 -20 -20 -20 -20 -20 -20 -20 -20 -20 -20 -20 -20 -20 -20 -20 -20 -20 -20 -20 -20 -20 -20 -20 -20 -20 -20 -20 -20 -20
-20 -20 -20 -20 -20 -20 -20 -20 -20 -20 -20 -20 -20 -20 -20 -20 -20 -20 -20 -20 -20 -20 -20 -20 -20 -20 -20 -20 -20 -20 -20 -20 -20 -20 -20 -20 -20 -20 -20 -20 -20 -20 -20 -20
-20 -20 -20 -20 -20 -20 -20 -20 -20 -20 -20 -20 -20 -20 -20 -20 -20 -20 -20 -20 -20 -20 -20 -20 -20 -20 -20 -20 -20 -20 -20 -20 -20 -20 -20 -20 -20 -20 -20 -20 -20 -20 -20 -20
-20 -20 -20 -20 -20 -20 -20 -20 -20 -20 -20 -20 -20 -20 -20 -20 -20 -20 -20 -20 -20 -20 -20 -20 -20 -20 -20 -20 -20 -20 -20 -20 -20 -20 -20 -20 -20 -20 -20 -20 -20 -20 -20 -20
-20 -20 -20 -20 -20 -20 -20 -20 -20 -20 -20 -20 -20 -20 -20 -20 -20 -20 -20 -20 -20 -20 -20 -20 -20 -20 -20 -20 -20 -20 -20 -20 -20 -20 -20 -20 -20 -20 -20 -20 -20 -20 -20 -20
-20 -20 -20 -20 -20 -20 -20 -20 -20 -20 -20 -20 -20 -20 -20 -20 -20 -20 -20 -20 -20 -20 -20 -20 -20 -20 -20 -20 -20 -20 -20 -20 -20 -20 -20 -20 -20 -20 -20 -20 -20 -20 -20 -20
-20 -20 -20 -20 -20 -20 -20 -20 -20 -20 -20 -20 -20 -20 -20 -20 -20 -20 -20 -20 -20 -20 -20 -20 -20 -20 -20 -20 -20 -20 -20 -20 -20 -20 -20 -20 -20 -20 -20 -20 -20 -20 -20 -20
-16 -16 -20 -20 -20 -20 -20 -20 -20 -20 -20 -20 -20 -20 -20 -20 -20 -20 -20 -20 -20 -20 -20 -20 -20 -20 -20 -20 -20 -20 -20 -20 -20 -20 -20 -20 -20 -20 -20 -20 -20 -20 -20 -20
-20 -20 -20 -20 -20 -20 -20 -20 -20 -20 -20 -20 -20 -20 -20 -20 -20 -20 -20 -20 -20 -20 -20 -20 -20 -20 -20 -20 -20 -20 -20 -20 -20 -20 -20 -20 -20 -20 -20 -20 -20 -20 -20 -20
-20 -20 -20 -20 -20 -20 -20 -20 -20 -20 -20 -20 -20 -20 -20 -20 -20 -20 -20 -20 -20 -20 -20 -20 -20 -20 -20 -20 -20 -20 -20 -20 -20 -20 -20 -20 -20 -20 -20 -20 -20 -20 -20 -20

GFSNGP_prec_radar_069.txt.gz
Reflectivity
-20 -20 -20 -20 -20 8 17 25 30 -11 -0 13 31 34 33 -15 -8 5 -20 -11 -9 7 16 13 15 17 17 -20 -20 -20 -20 -20 -20 -20 -19 15 25 -20 -20 -20 -20 -20 -20 -20
-20 -20 -20 -20 -20 -16 15 23 20 -11 -20 19 30 31 35 34 13 -13 21 -20 -20 -20 -20 -20 -20 -20 -20 -20 -20 -20 -20 -20 -20 -20 -8 10 12 -14 -6 11 27 28 -19 -20
-20 -20 -20 -20 -20 -20 -18 -20 3 22 -13 16 16 17 29 35 32 24 15 20 18 -6 18 3 -20 -20 -20 -20 -20 -20 -20 -20 -20 -20 -7 -4 11 8 15 19 1 2 -3 -5
-20 -20 -20 -20 -20 -20 -20 -20 11 -5 10 18 14 18 36 28 33 31 28 24 -6 -0 26 2 -20 -20 -20 -20 -20 -20 -20 -20 -20 -20 -20 -20 -20 -20 13 11 12 17 15 11
-20 -20 -20 -20 -20 -20 -20 -20 -20 -8 -17 -10 17 12 22 28 28 33 31 26 20 4 11 8 11 8 -19 -20 -20 -20 -20 -20 -20 -20 -20 -20 -20 -20 -20 -20 -15 1 2 7
-20 -6 -20 -20 -20 -20 -20 -20 -20 -20 22 20 19 21 32 34 35 30 24 28 22 13 4 9 -20 -20 -20 -20 -20 -20 -20 -20 -20 -20 -20 -20 -20 -20 -20 -19 -20 -20 -20 -20
-20 -4 -17 -20 -20 -20 -20 -20 -20 -20 6 24 31 21 6 15 26 31 16 3 2 0 1 11 5 -5 -5 -9 -20 -20 -20 -20 -20 -20 -20 -20 -20 -20 -20 -20 -20 -20 -20 -8
-19 6 -12 -20 -20 -20 -20 -20 -20 -20 -18 0 8 7 -1 -8 -13 5 2 -14 -9 -11 -20 -20 -20 -20 -20 -20 -20 -20 -20 -20 -20 -20 -20 -20 -20 -20 -20 -20 -20 -20 -20 -20
-20 -20 -20 -20 -20 -20 -20 -12 28 24 20 25 -1 32 23 16 16 -19 -20 -20 -20 -20 -20 -20 -20 -10 -7 -20 -20 -20 -20 -20 -20 -20 -20 -20 -20 -20 -20 -20 -20 -20 -20 -20
31 8 -8 -20 -20 10 -20 -20 -14 -4 38 41 39 35 32 21 -20 -20 -20 -20 -20 -20 -20 -14 -20 -20 -20 -20 -20 -20 -20 -20 -20 -20 -20 -20 -20 -20 -20 -20 -20 -20 -20 -20
13 30 8 11 -10 -8 11 12 21 11 -19 -11 12 -1 -14 -20 -13 -20 -20 -20 -20 -20 -20 -20 -20 -20 -20 -20 -20 -20 -20 -20 -20 -20 -20 -20 -19 -19 -18 -20 -20 -20 -20 -20
-1 25 22 20 28 4 5 6 2 -14 -5 -16 -20 -14 -16 -20 -20 -20 -20 -20 -20 -20 -20 -20 -20 -20 -20 -18 -20 -20 -20 -20 -20 -20 -20 -20 -20 -20 -12 -20 -20 -20 -20 -20
24 36 35 34 37 16 -13 21 28 26 18 11 -20 -20 -20 -20 -20 -20 -20 -20 -20 -20 -20 -20 -20 -20 -20 -20 -20 -20 -20 -20 -20 -20 -20 -20 -20 -20 -20 -20 -20 -6 -1 -0
26 33 15 0 5 8 7 -20 -20 -19 -8 -5 -20 -20 -20 -20 -20 -20 -20 -20 -20 -20 -20 -20 -20 -20 -20 -20 -20 -20 -20 -20 -20 -20 -20 -20 -20 -20 -20 -20 -20 -20 -15 -3
-20 -20 -10 -2 -13 -1 -0 -20 -20 -18 -4 -12 -20 -20 -20 -20 -20 -20 -20 -20 -20 -20 -20 -20 -20 -20 -20 -20 -20 -20 -20 -20 -20 -20 -20 -20 -20 -20 -20 -20 -20 -20 -20 -20
-20 -20 -20 -20 -20 -20 -20 -20 -20 -5 -5 -20 -20 -20 -20 -20 -20 -20 -20 -20 -20 -20 -20 -20 -20 -20 -20 -20 -20 -20 -20 -20 -20 -20 -20 -20 -20 -20 -20 -20 -20 -20 -20 -20
-20 -20 -20 -20 -20 -20 -20 -20 -20 -20 -20 -20 -20 -20 -20 -20 -20 -20 -20 -20 -20 -20 -20 -20 -20 -20 -20 -20 -20 -20 -20 -20 -20 -20 -20 -20 -20 -20 -20 -20 -20 -20 -20 -20
-20 -20 -20 -20 -20 -20 -20 -20 -20 -20 -20 -20 -20 -20 -20 -20 -20 -20 -20 -20 -20 -20 -20 -20 -20 -20 -20 -20 -20 -20 -20 -20 -20 -20 -20 -20 -20 -20 -20 -20 -20 -20 -20 -20
-20 -20 -20 -20 -20 -20 -20 -20 -20 -20 -20 -20 -20 -20 -20 -20 -20 -20 -20 -20 -20 -20 -20 -20 -20 -20 -20 -20 -20 -20 -20 -20 -20 -20 -20 -20 -20 -20 -20 -20 -20 -20 -20 -20
-20 -20 -20 -20 -20 -20 -20 -20 -20 -20 -20 -20 -20 -20 -20 -20 -20 -20 -20 -20 -20 -20 -20 -20 -20 -20 -20 -20 -20 -20 -20 -20 -20 -20 -20 -20 -20 -20 -20 -20 -20 -20 -20 -20
-20 -20 -20 -20 -20 -20 -20 -20 -20 -20 -20 -20 -20 -20 -20 -20 -20 -20 -20 -20 -20 -20 -20 -20 -20 -20 -20 -20 -20 -20 -20 -20 -20 -20 -20 -20 -20 -20 -20 -20 -20 -20 -20 -20
-20 -20 -20 -20 -20 -20 -20 -20 -20 -20 -20 -20 -20 -20 -20 -20 -20 -20 -20 -20 -20 -20 -20 -20 -20 -20 -20 -20 -20 -20 -20 -20 -20 -20 -20 -20 -20 -20 -20 -20 -20 -20 -20 -20
-20 -20 -20 -20 -20 -20 -20 -20 -20 -20 -20 -20 -20 -20 -20 -20 -20 -20 -20 -20 -20 -20 -20 -20 -20 -20 -20 -20 -20 -20 -20 -20 -20 -20 -20 -20 -20 -20 -20 -20 -20 -20 -20 -20
-20 -20 -20 -20 -20 -20 -20 -20 -20 -20 -20 -20 -20 -20 -20 -20 -20 -20 -20 -20 -20 -20 -20 -20 -20 -20 -20 -20 -20 -20 -20 -20 -20 -20 -20 -20 -20 -20 -20 -20 -20 -20 -20 -20
-20 -20 -20 -20 -18 -20 -20 -20 -20 -20 -20 -20 -20 -20 -20 -20 -20 -20 -20 -20 -20 -20 -20 -20 -20 -20 -20 -20 -20 -20 -20 -20 -20 -20 -20 -20 -20 -20 -20 -20 -20 -20 -20 -20
-20 -20 -20 -20 -20 -20 -20 -20 -20 -20 -20 -20 -20 -20 -20 -20 -20 -20 -20 -20 -20 -20 -20 -20 -20 -20 -20 -20 -20 -20 -20 -20 -20 -20 -20 -20 -20 -20 -20 -20 -20 -20 -20 -20
-20 -20 -20 -20 -20 -20 -20 -20 -20 -20 -20 -20 -20 -20 -20 -20 -20 -20 -20 -20 -20 -20 -20 -20 -20 -20 -20 -20 -20 -20 -20 -20 -20 -20 -20 -20 -20 -20 -20 -20 -20 -20 -20 -20

GFSNGP_prec_radar_072.txt.gz
Reflectivity
-20 -20 -20 -20 -20 -20 -13 16 23 11 13 23 34 30 30 4 -13 4 11 17 18 16 16 23 17 19 4 10 15 17 -10 -20 -9 1 -17 -20 -20 -15 5 -10 -0 2 -9 -20
-20 -20 -20 -20 -20 -20 -20 -20 -20 -20 -20 -20 23 27 27 13 27 -12 2 -2 -1 -17 -20 14 14 -4 5 26 24 15 -0 -2 0 7 11 15 -2 -1 1 -3 8 14 26 8
-20 -20 -20 -20 -20 -20 -20 -19 -20 -20 -20 -18 0 1 19 23 10 30 -4 -19 -1 3 -11 5 7 -0 -6 -3 7 -20 -20 -20 -20 -20 -17 1 12 12 9 17 17 12 16 20
-20 -20 -20 -20 -20 -20 -8 -12 -20 -14 3 28 23 30 1 4 -13 10 34 32 26 -3 -7 -0 -20 -18 -13 -20 -20 -20 -20 -20 -20 -20 -20 -20 -20 -20 -20 -20 -13 4 16 13
-20 -20 -20 -20 -20 -20 5 -20 -20 -20 15 0 -20 0 37 -10 9 24 20 33 36 22 24 20 10 -18 -2 -5 -20 -20 -20 -20 -20 -20 -20 -20 -20 -20 -20 -20 -20 -17 -20 -20
-20 -20 -20 -20 -20 -20 -20 -20 -20 -20 -20 -12 21 -2 18 15 19 31 30 20 26 28 25 18 9 12 5 -4 -20 -20 -20 -20 -20 -20 -20 -20 -20 -20 -20 -20 -10 -20 -20 -20
-20 -20 -20 -20 -20 -20 -20 -20 -20 -20 -20 -18 24 26 31 38 39 36 25 16 8 12 17 18 12 10 -18 -20 -20 -19 -10 -9 -16 -20 -20 -20 -20 -20 -20 -20 -20 -20 -20 -20
-10 -16 -16 -20 -20 -20 -20 -20 -20 -16 -20 0 25 19 33 15 21 12 17 -16 -15 -14 -18 -13 8 10 14 5 2 -7 -16 -20 -20 -20 -20 -20 -20 -20 -20 -20 -20 -20 -20 -20
-20 -20 -20 -20 -20 2 10 12 -9 1 27 22 20 15 23 25 23 24 11 -2 -20 -20 -20 -20 -20 -19 -17 -1 2 -7 -8 -20 -20 -20 -20 -20 -20 -20 -20 -20 -20 -20 -20 -20
30 7 -18 -20 -5 8 -11 -20 -20 -20 6 39 34 29 30 31 29 23 1 -3 1 -20 -18 -17 -20 -20 -20 -20 -20 -20 -20 -20 -20 -20 -20 -20 -20 -20 -20 -20 -20 -20 -20 -20
16 20 26 23 14 22 20 20 19 17 3 18 23 21 15 18 17 12 -1 -20 -20 -20 -20 -20 -20 -20 -13 -20 -20 -20 -20 -20 -20 -20 -20 -20 -18 -18 -19 -12 -11 -20 -20 -15
5 25 23 16 30 17 12 14 11 7 7 8 12 18 14 17 15 9 -15 -20 -20 -20 -20 -20 -20 -20 -20 -20 -20 -20 -20 -20 -20 -20 -20 -20 -20 -19 1 0 4 5 -6 -20
17 31 16 12 7 7 14 14 -10 9 13 11 8 6 10 5 8 9 -4 -20 -20 -20 -20 -20 -20 -20 -20 -20 -20 -20 -20 -20 -20 -20 -20 -20 -20 -20 -20 -20 -19 -6 0 -2
24 28 14 9 -10 9 -0 -20 -20 -20 -20 -19 -19 -20 -18 -17 -11 -19 -20 -20 -20 -20 -20 -20 -20 -20 -20 -20 -20 -20 -20 -20 -20 -20 -20 -20 -20 -20 -20 -20 -20 -20 -17 -4
-4 -20 -18 -20 -20 -20 -20 -20 -20 -20 -20 -20 -20 -20 -20 -20 -20 -20 -20 -20 -20 -20 -20 -20 -20 -20 -20 -20 -20 -20 -20 -20 -20 -20 -20 -20 -20 -20 -20 -20 -20 -20 -20 -20
-20 -20 -20 -20 -20 -20 -20 -20 -20 -20 -20 -20 -20 -20 -20 -20 -20 -20 -20 -20 -20 -20 -20 -20 -20 -20 -20 -20 -20 -20 -20 -20 -20 -20 -20 -20 -20 -20 -20 -20 -20 -20 -20 -20
-20 -20 -20 -20 -20 -20 -20 -20 -20 -20 -20 -20 -20 -20 -20 -20 -20 -20 -20 -20 -20 -20 -20 -20 -20 -20 -20 -20 -20 -20 -20 -20 -20 -20 -20 -20 -20 -20 -20 -20 -20 -20 -20 -20
-20 -20 -20 -20 -20 -20 -20 -20 -20 -20 -20 -20 -20 -20 -20 -20 -20 -20 -20 -20 -20 -20 -20 -20 -20 -20 -20 -20 -20 -20 -20 -20 -20 -20 -20 -20 -20 -20 -20 -20 -20 -20 -20 -20
-20 -20 -20 -20 -20 -20 -20 -20 -20 -20 -20 -20 -20 -20 -20 -20 -20 -20 -20 -20 -20 -20 -20 -20 -20 -20 -20 -20 -20 -20 -20 -20 -20 -20 -20 -20 -20 -20 -20 -20 -20 -20 -20 -20
-20 -20 -20 -20 -20 -20 -20 -20 -20 -20 -20 -20 -20 -20 -20 -20 -20 -20 -20 -20 -20 -20 -20 -20 -20 -20 -20 -20 -20 -20 -20 -20 -20 -20 -20 -20 -20 -20 -20 -20 -20 -20 -20 -20
-20 -20 -20 -20 -20 -20 -20 -20 -20 -20 -20 -20 -20 -20 -20 -20 -20 -20 -20 -20 -20 -20 -20 -20 -20 -20 -20 -20 -20 -20 -20 -20 -20 -20 -20 -20 -20 -20 -20 -20 -20 -20 -20 -20
-20 -20 -20 -20 -20 -20 -20 -20 -20 -20 -20 -20 -20 -20 -20 -20 -20 -20 -20 -20 -20 -20 -20 -20 -20 -20 -20 -20 -20 -20 -20 -20 -20 -20 -20 -20 -20 -20 -20 -20 -20 -20 -20 -20
-20 -20 -20 -20 -20 -20 -20 -20 -20 -20 -20 -20 -20 -20 -20 -20 -20 -20 -20 -20 -20 -20 -20 -20 -20 -20 -20 -20 -20 -20 -20 -20 -20 -20 -20 -20 -20 -20 -20 -20 -20 -20 -20 -20
-20 -20 -20 -20 -20 -20 -20 -20 -20 -20 -20 -20 -20 -20 -20 -20 -20 -20 -20 -20 -20 -20 -20 -20 -20 -20 -20 -20 -20 -20 -20 -20 -20 -20 -20 -20 -20 -20 -20 -20 -20 -20 -20 -20
-20 -20 -20 -20 -20 -20 -20 -20 -20 -20 -20 -20 -20 -20 -20 -20 -20 -20 -20 -20 -20 -20 -20 -20 -20 -20 -20 -20 -20 -20 -20 -20 -20 -20 -20 -20 -20 -20 -20 -20 -20 -20 -20 -20
-20 -20 -20 -20 -20 -20 -20 -20 -20 -20 -20 -20 -20 -20 -20 -20 -20 -20 -20 -20 -20 -20 -20 -20 -20 -20 -20 -20 -20 -20 -20 -20 -20 -20 -20 -20 -20 -20 -20 -20 -20 -20 -20 -20
-20 -20 -20 -20 -20 -20 -20 -20 -20 -20 -20 -20 -20 -20 -20 -20 -20 -20 -20 -20 -20 -20 -20 -20 -20 -20 -20 -20 -20 -20 -20 -20 -20 -20 -20 -20 -20 -20 -20 -20 -20 -20 -20 -20

GFSNGP_prec_radar_075.txt.gz
Reflectivity
18 -20 -20 -20 -20 -20 -20 1 -18 -20 -17 -6 12 27 37 20 15 23 25 19 18 17 15 18 17 22 27 26 20 15 8 -7 17 1 6 9 1 -6 -15 -20 -20 -20 -20 -20
5 -20 -20 -20 -20 -20 -20 -20 -16 -20 -20 -20 -20 0 27 32 24 17 21 18 18 22 11 3 19 21 23 12 -20 6 -9 8 -13 10 13 11 12 4 -2 -2 4 6 12 5
-20 -20 -20 -20 -20 -20 -20 -20 3 -20 -20 8 4 7 5 24 22 3 22 6 8 -10 -13 -15 -20 2 -20 -20 -14 -5 21 24 -15 -20 -18 -11 -9 2 -3 3 11 18 13 19
-7 -20 -20 -20 -20 -20 -4 -5 -20 -20 -12 -20 21 33 6 13 19 24 29 -3 11 11 -4 -20 -14 -20 -20 2 -13 8 31 6 -11 -20 -20 -20 -20 -20 -20 -20 -11 -1 3 6
-20 -20 -20 -20 -20 -20 -16 -20 -20 -20 -19 -20 -4 20 17 23 20 13 27 28 21 15 26 -1 -8 19 12 30 31 6 -19 -16 -10 -20 -20 -20 -20 -20 -20 -12 -20 -20 -20 -20
-20 -19 -20 -20 -20 -20 -20 -20 -19 -20 -20 -20 -18 18 11 16 36 35 32 22 24 10 18 22 22 14 1 7 -6 1 4 8 5 -20 -20 -20 -20 -20 -20 -20 -20 -20 -20 -20
4 4 -20 -20 -20 -20 -20 -20 -20 -20 -20 -20 -5 13 32 29 17 32 30 19 17 6 2 18 26 24 11 6 12 -19 -8 -20 -20 -20 -20 -20 -20 -20 -20 -20 -20 -20 -20 -20
-2 2 -20 -20 -20 -20 -12 2 -12 -20 -15 -3 -6 12 17 28 27 29 24 11 -14 -17 -13 -19 -20 -6 9 1 14 5 -12 -5 -6 -14 -13 -12 -20 -20 -20 -20 -20 -20 -20 -12
-20 -20 -20 -20 -20 -2 14 -2 6 -20 -19 27 17 30 23 19 25 24 26 -0 -20 -20 -20 -20 -20 -20 -20 -13 1 3 1 3 -0 -7 -20 -20 -20 -20 -20 -20 -20 -20 -20 -20
-3 26 6 2 -18 -0 16 15 12 0 -20 -1 26 23 26 29 27 25 25 16 -17 -20 -20 -20 -20 -19 -20 -20 -20 -20 -20 -6 -1 -9 -20 -20 -20 -18 -20 -20 -20 -20 -20 -13
39 32 24 11 15 3 3 -8 -4 17 13 -2 10 19 15 15 17 21 23 11 -6 -20 -20 -20 -20 -20 -20 -20 -20 -20 -19 -20 -20 -20 -20 -16 1 -0 1 6 -0 -1 -3 -2
6 9 4 2 3 2 2 6 18 1 -8 6 3 19 18 17 10 10 8 4 -13 -20 -20 -20 -20 -20 -20 -20 -20 -20 -20 -20 -20 -20 -20 -20 -20 -20 -6 -2 -1 -3 -1 -0
1 5 -16 -11 -16 -2 -2 -16 -17 -18 -16 -19 -20 -5 -2 10 12 6 3 9 -1 -6 -10 -9 -20 -20 -20 -20 -20 -20 -20 -20 -20 -20 -20 -20 -20 -20 -20 -13 -19 -4 -0 1
18 18 11 6 8 -16 -19 -20 -19 -20 -20 -20 -20 -20 -20 -20 -10 -7 -20 -20 -20 -20 -20 -20 -20 -20 -20 -20 -20 -20 -20 -20 -20 -20 -20 -20 -20 -20 -20 -20 -20 -20 -20 -9
18 13 -4 -10 -17 -20 -20 -20 -20 -20 -20 -20 -20 -20 -20 -20 -20 -20 -20 -20 -20 -20 -20 -20 -20 -20 -20 -20 -20 -20 -20 -20 -20 -20 -20 -20 -20 -20 -20 -20 -20 -20 -20 -20
-18 -20 -20 -20 -20 -20 -20 -20 -20 -20 -20 -20 -20 -20 -20 -20 -20 -20 -20 -20 -20 -20 -20 -20 -20 -20 -20 -20 -20 -20 -20 -20 -20 -20 -20 -20 -20 -20 -20 -20 -20 -20 -20 -20
-20 -20 -20 -20 -20 -20 -20 -20 -20 -20 -20 -20 -20 -20 -20 -20 -20 -20 -20 -20 -20 -20 -20 -20 -20 -20 -20 -20 -20 -20 -20 -20 -20 -20 -20 -20 -20 -20 -20 -20 -20 -20 -20 -20
-20 -20 -20 -20 -20 -20 -20 -20 -20 -20 -20 -20 -20 -20 -20 -20 -20 -20 -20 -20 -20 -20 -20 -20 -20 -20 -20 -20 -20 -20 -20 -20 -20 -20 -20 -20 -20 -20 -20 -20 -20 -20 -20 -20
-20 -20 -20 -20 -20 -20 -20 -20 -20 -20 -20 -20 -20 -20 -20 -20 -20 -20 -20 -20 -20 -20 -20 -20 -20 -20 -20 -20 -20 -20 -20 -20 -20 -20 -20 -20 -20 -20 -20 -20 -20 -20 -20 -20
-20 -20 -20 -20 -20 -20 -20 -20 -20 -20 -20 -20 -20 -20 -20 -20 -20 -20 -20 -20 -20 -20 -20 -20 -20 -20 -20 -20 -20 -20 -20 -20 -20 -20 -20 -20 -20 -20 -20 -20 -20 -20 -20 -20
-20 -20 -20 -20 -20 -20 -20 -20 -20 -20 -20 -20 -20 -20 -20 -20 -20 -20 -20 -20 -20 -20 -20 -20 -20 -20 -20 -20 -20 -20 -20 -20 -20 -20 -20 -20 -20 -20 -20 -20 -20 -20 -20 -20
-20 -20 -20 -20 -20 -20 -20 -20 -20 -20 -20 -20 -20 -20 -20 -20 -20 -20 -20 -20 -20 -20 -20 -20 -20 -20 -20 -20 -20 -20 -20 -20 -20 -20 -20 -20 -20 -20 -20 -20 -20 -20 -20 -20
-20 -20 -20 -20 -20 -20 -20 -20 -20 -20 -20 -20 -20 -20 -20 -20 -20 -20 -20 -20 -20 -20 -20 -20 -20 -20 -20 -20 -20 -20 -20 -20 -20 -20 -20 -20 -20 -20 -20 -20 -20 -20 -20 -20
-20 -20 -20 -20 -20 -20 -20 -20 -20 -20 -20 -20 -20 -20 -20 -20 -20 -20 -20 -20 -20 -20 -20 -20 -20 -20 -20 -20 -20 -20 -20 -20 -20 -20 -20 -20 -20 -20 -20 -20 -20 -20 -20 -20
-20 -20 -20 -20 -20 -20 -20 -20 -20 -20 -20 -20 -20 -20 -20 -20 -20 -20 -20 -20 -20 -20 -20 -20 -20 -20 -20 -20 -20 -20 -20 -20 -20 -20 -20 -20 -20 -20 -20 -20 -20 -20 -20 -20
-20 -20 -20 -20 -20 -20 -20 -20 -20 -20 -20 -20 -20 -20 -20 -20 -20 -20 -20 -20 -20 -20 -20 -20 -20 -20 -20 -20 -20 -20 -20 -20 -20 -20 -20 -20 -20 -20 -20 -20 -20 -20 -20 -20
-20 -20 -20 -20 -20 -20 -20 -20 -20 -20 -20 -20 -20 -20 -20 -20 -20 -20 -20 -20 -20 -20 -20 -20 -20 -20 -20 -20 -20 -20 -20 -20 -20 -20 -20 -20 -20 -20 -20 -20 -20 -20 -20 -20